Wetterdaten: Mittwoch, 30.01.2013
Datum Zeit Temp. Aussen +5cm Feuchte Auss BlattFeu 1 Luftdruck Regen Sonnenschein UV Solar Windben
30.01.2013 00:00 12,2 C 10,7 C 95 % 3 lf 1007,6 hPa 0,0 l/m 0 min 0,0 UV-I 0 W/m 12,9 km/h (3 Bft)
30.01.2013 00:02 12,2 C 10,7 C 95 % 13 lf 1007,5 hPa 0,0 l/m 0 min 0,0 UV-I 0 W/m 10,3 km/h (2 Bft)
30.01.2013 00:04 12,2 C 10,7 C 95 % 14 lf 1007,8 hPa 0,0 l/m 0 min 0,0 UV-I 0 W/m 25,7 km/h (4 Bft)
30.01.2013 00:06 12,1 C 10,7 C 96 % 15 lf 1007,6 hPa 0,0 l/m 0 min 0,0 UV-I 0 W/m 33,5 km/h (5 Bft)
30.01.2013 00:08 12,1 C 10,1 C 96 % 15 lf 1007,6 hPa 0,0 l/m 0 min 0,0 UV-I 0 W/m 28,3 km/h (4 Bft)
30.01.2013 00:10 12,1 C 10,1 C 96 % 15 lf 1007,6 hPa 0,0 l/m 0 min 0,0 UV-I 0 W/m 28,3 km/h (4 Bft)
30.01.2013 00:12 12,1 C 10,1 C 96 % 15 lf 1007,6 hPa 0,0 l/m 0 min 0,0 UV-I 0 W/m 12,9 km/h (3 Bft)
30.01.2013 00:14 12,1 C 10,1 C 96 % 15 lf 1007,8 hPa 0,0 l/m 0 min 0,0 UV-I 0 W/m 20,6 km/h (4 Bft)
30.01.2013 00:16 12,1 C 10,1 C 96 % 15 lf 1007,6 hPa 0,0 l/m 0 min 0,0 UV-I 0 W/m 20,6 km/h (4 Bft)
30.01.2013 00:18 12,1 C 10,1 C 96 % 15 lf 1007,6 hPa 0,0 l/m 0 min 0,0 UV-I 0 W/m 25,7 km/h (4 Bft)
30.01.2013 00:20 12,0 C 10,1 C 96 % 15 lf 1007,7 hPa 0,0 l/m 0 min 0,0 UV-I 0 W/m 23,2 km/h (4 Bft)
30.01.2013 00:22 12,0 C 10,1 C 96 % 15 lf 1007,7 hPa 0,0 l/m 0 min 0,0 UV-I 0 W/m 20,6 km/h (4 Bft)
30.01.2013 00:24 12,0 C 10,1 C 97 % 15 lf 1007,7 hPa 0,0 l/m 0 min 0,0 UV-I 0 W/m 10,3 km/h (2 Bft)
30.01.2013 00:26 12,0 C 10,1 C 97 % 15 lf 1007,6 hPa 0,0 l/m 0 min 0,0 UV-I 0 W/m 20,6 km/h (4 Bft)
30.01.2013 00:28 11,9 C 10,1 C 97 % 15 lf 1007,7 hPa 0,0 l/m 0 min 0,0 UV-I 0 W/m 25,7 km/h (4 Bft)
30.01.2013 00:30 11,9 C 10,1 C 97 % 15 lf 1007,5 hPa 0,0 l/m 0 min 0,0 UV-I 0 W/m 20,6 km/h (4 Bft)
30.01.2013 00:32 11,9 C 10,1 C 97 % 15 lf 1007,6 hPa 0,0 l/m 0 min 0,0 UV-I 0 W/m 23,2 km/h (4 Bft)
30.01.2013 00:34 11,9 C 10,1 C 97 % 15 lf 1007,7 hPa 0,0 l/m 0 min 0,0 UV-I 0 W/m 25,7 km/h (4 Bft)
30.01.2013 00:36 11,9 C 10,1 C 97 % 15 lf 1007,6 hPa 0,0 l/m 0 min 0,0 UV-I 0 W/m 12,9 km/h (3 Bft)
30.01.2013 00:38 11,9 C 10,1 C 97 % 15 lf 1007,5 hPa 0,0 l/m 0 min 0,0 UV-I 0 W/m 12,9 km/h (3 Bft)
30.01.2013 00:40 11,9 C 10,1 C 97 % 15 lf 1007,6 hPa 0,0 l/m 0 min 0,0 UV-I 0 W/m 15,4 km/h (3 Bft)
30.01.2013 00:42 11,9 C 10,1 C 98 % 15 lf 1007,7 hPa 0,0 l/m 0 min 0,0 UV-I 0 W/m 18,0 km/h (3 Bft)
30.01.2013 00:44 11,9 C 10,1 C 98 % 15 lf 1007,7 hPa 0,2 l/m 0 min 0,0 UV-I 0 W/m 15,4 km/h (3 Bft)
30.01.2013 00:46 11,8 C 10,1 C 97 % 15 lf 1007,6 hPa 0,0 l/m 0 min 0,0 UV-I 0 W/m 18,0 km/h (3 Bft)
30.01.2013 00:48 11,8 C 10,1 C 98 % 15 lf 1007,5 hPa 0,0 l/m 0 min 0,0 UV-I 0 W/m 20,6 km/h (4 Bft)
30.01.2013 00:50 11,8 C 10,1 C 98 % 15 lf 1007,5 hPa 0,0 l/m 0 min 0,0 UV-I 0 W/m 18,0 km/h (3 Bft)
30.01.2013 00:52 11,8 C 10,1 C 98 % 15 lf 1007,3 hPa 0,0 l/m 0 min 0,0 UV-I 0 W/m 18,0 km/h (3 Bft)
30.01.2013 00:54 11,8 C 10,1 C 98 % 15 lf 1007,4 hPa 0,0 l/m 0 min 0,0 UV-I 0 W/m 23,2 km/h (4 Bft)
30.01.2013 00:56 11,8 C 10,1 C 98 % 15 lf 1007,5 hPa 0,0 l/m 0 min 0,0 UV-I 0 W/m 20,6 km/h (4 Bft)
30.01.2013 00:58 11,8 C 10,1 C 98 % 15 lf 1007,3 hPa 0,0 l/m 0 min 0,0 UV-I 0 W/m 20,6 km/h (4 Bft)
30.01.2013 01:00 11,8 C 10,1 C 98 % 15 lf 1007,3 hPa 0,0 l/m 0 min 0,0 UV-I 0 W/m 18,0 km/h (3 Bft)
30.01.2013 01:02 11,8 C 10,1 C 98 % 15 lf 1007,4 hPa 0,0 l/m 0 min 0,0 UV-I 0 W/m 15,4 km/h (3 Bft)
30.01.2013 01:04 11,8 C 10,1 C 98 % 15 lf 1007,3 hPa 0,0 l/m 0 min 0,0 UV-I 0 W/m 28,3 km/h (4 Bft)
30.01.2013 01:06 11,8 C 10,1 C 98 % 15 lf 1007,4 hPa 0,0 l/m 0 min 0,0 UV-I 0 W/m 18,0 km/h (3 Bft)
30.01.2013 01:08 11,7 C 10,1 C 98 % 15 lf 1007,5 hPa 0,0 l/m 0 min 0,0 UV-I 0 W/m 15,4 km/h (3 Bft)
30.01.2013 01:10 11,7 C 10,1 C 98 % 15 lf 1007,4 hPa 0,0 l/m 0 min 0,0 UV-I 0 W/m 18,0 km/h (3 Bft)
30.01.2013 01:12 11,8 C 10,1 C 98 % 15 lf 1007,4 hPa 0,0 l/m 0 min 0,0 UV-I 0 W/m 5,1 km/h (1 Bft)
30.01.2013 01:14 11,7 C 10,1 C 98 % 15 lf 1007,5 hPa 0,0 l/m 0 min 0,0 UV-I 0 W/m 15,4 km/h (3 Bft)
30.01.2013 01:16 11,8 C 10,1 C 98 % 15 lf 1007,4 hPa 0,0 l/m 0 min 0,0 UV-I 0 W/m 20,6 km/h (4 Bft)
30.01.2013 01:18 11,8 C 10,1 C 98 % 15 lf 1007,5 hPa 0,0 l/m 0 min 0,0 UV-I 0 W/m 12,9 km/h (3 Bft)
30.01.2013 01:20 11,8 C 10,1 C 98 % 15 lf 1007,3 hPa 0,0 l/m 0 min 0,0 UV-I 0 W/m 20,6 km/h (4 Bft)
30.01.2013 01:22 11,8 C 10,1 C 97 % 15 lf 1007,2 hPa 0,0 l/m 0 min 0,0 UV-I 0 W/m 12,9 km/h (3 Bft)
30.01.2013 01:24 11,8 C 10,1 C 97 % 15 lf 1007,3 hPa 0,0 l/m 0 min 0,0 UV-I 0 W/m 20,6 km/h (4 Bft)
30.01.2013 01:26 11,8 C 10,1 C 97 % 15 lf 1007,3 hPa 0,0 l/m 0 min 0,0 UV-I 0 W/m 20,6 km/h (4 Bft)
30.01.2013 01:28 11,9 C 10,1 C 97 % 14 lf 1007,3 hPa 0,0 l/m 0 min 0,0 UV-I 0 W/m 30,9 km/h (5 Bft)
30.01.2013 01:30 11,9 C 10,1 C 97 % 14 lf 1007,2 hPa 0,0 l/m 0 min 0,0 UV-I 0 W/m 20,6 km/h (4 Bft)
30.01.2013 01:32 11,9 C 10,1 C 97 % 13 lf 1007,1 hPa 0,0 l/m 0 min 0,0 UV-I 0 W/m 20,6 km/h (4 Bft)
30.01.2013 01:34 11,9 C 10,1 C 97 % 13 lf 1007,1 hPa 0,0 l/m 0 min 0,0 UV-I 0 W/m 20,6 km/h (4 Bft)
30.01.2013 01:36 11,9 C 10,1 C 96 % 12 lf 1007,2 hPa 0,0 l/m 0 min 0,0 UV-I 0 W/m 15,4 km/h (3 Bft)
30.01.2013 01:38 12,0 C 10,1 C 96 % 12 lf 1007,3 hPa 0,0 l/m 0 min 0,0 UV-I 0 W/m 28,3 km/h (4 Bft)
30.01.2013 01:40 12,0 C 10,1 C 96 % 11 lf 1007,2 hPa 0,0 l/m 0 min 0,0 UV-I 0 W/m 20,6 km/h (4 Bft)
30.01.2013 01:42 12,1 C 10,1 C 96 % 9 lf 1007,2 hPa 0,0 l/m 0 min 0,0 UV-I 0 W/m 20,6 km/h (4 Bft)
30.01.2013 01:44 12,1 C 10,1 C 96 % 8 lf 1007,0 hPa 0,0 l/m 0 min 0,0 UV-I 0 W/m 18,0 km/h (3 Bft)
30.01.2013 01:46 12,1 C 10,1 C 96 % 6 lf 1007,1 hPa 0,0 l/m 0 min 0,0 UV-I 0 W/m 23,2 km/h (4 Bft)
30.01.2013 01:48 12,1 C 10,1 C 95 % 5 lf 1007,1 hPa 0,0 l/m 0 min 0,0 UV-I 0 W/m 18,0 km/h (3 Bft)
30.01.2013 01:50 12,1 C 10,1 C 95 % 4 lf 1007,1 hPa 0,0 l/m 0 min 0,0 UV-I 0 W/m 23,2 km/h (4 Bft)
30.01.2013 01:52 12,1 C 10,1 C 95 % 3 lf 1007,1 hPa 0,0 l/m 0 min 0,0 UV-I 0 W/m 23,2 km/h (4 Bft)
30.01.2013 01:54 12,2 C 10,1 C 95 % 2 lf 1007,0 hPa 0,0 l/m 0 min 0,0 UV-I 0 W/m 36,0 km/h (5 Bft)
30.01.2013 01:56 12,2 C 10,7 C 95 % 1 lf 1007,1 hPa 0,0 l/m 0 min 0,0 UV-I 0 W/m 20,6 km/h (4 Bft)
30.01.2013 01:58 12,2 C 10,7 C 95 % 1 lf 1007,1 hPa 0,0 l/m 0 min 0,0 UV-I 0 W/m 18,0 km/h (3 Bft)
30.01.2013 02:00 12,2 C 10,7 C 94 % 1 lf 1007,0 hPa 0,0 l/m 0 min 0,0 UV-I 0 W/m 25,7 km/h (4 Bft)
30.01.2013 02:02 12,2 C 10,7 C 94 % 1 lf 1007,2 hPa 0,0 l/m 0 min 0,0 UV-I 0 W/m 20,6 km/h (4 Bft)
30.01.2013 02:04 12,2 C 10,7 C 94 % 0 lf 1007,2 hPa 0,0 l/m 0 min 0,0 UV-I 0 W/m 20,6 km/h (4 Bft)
30.01.2013 02:06 12,2 C 10,7 C 94 % 0 lf 1007,1 hPa 0,0 l/m 0 min 0,0 UV-I 0 W/m 23,2 km/h (4 Bft)
30.01.2013 02:08 12,3 C 10,7 C 94 % 0 lf 1007,0 hPa 0,0 l/m 0 min 0,0 UV-I 0 W/m 20,6 km/h (4 Bft)
30.01.2013 02:10 12,3 C 10,7 C 93 % 0 lf 1006,8 hPa 0,0 l/m 0 min 0,0 UV-I 0 W/m 25,7 km/h (4 Bft)
30.01.2013 02:12 12,3 C 10,7 C 93 % 0 lf 1006,8 hPa 0,0 l/m 0 min 0,0 UV-I 0 W/m 12,9 km/h (3 Bft)
30.01.2013 02:14 12,3 C 10,7 C 93 % 0 lf 1006,8 hPa 0,0 l/m 0 min 0,0 UV-I 0 W/m 10,3 km/h (2 Bft)
30.01.2013 02:16 12,3 C 10,7 C 93 % 0 lf 1006,7 hPa 0,0 l/m 0 min 0,0 UV-I 0 W/m 20,6 km/h (4 Bft)
30.01.2013 02:18 12,3 C 10,7 C 93 % 0 lf 1006,8 hPa 0,0 l/m 0 min 0,0 UV-I 0 W/m 25,7 km/h (4 Bft)
30.01.2013 02:20 12,3 C 10,7 C 93 % 0 lf 1006,7 hPa 0,0 l/m 0 min 0,0 UV-I 0 W/m 15,4 km/h (3 Bft)
30.01.2013 02:22 12,3 C 10,7 C 92 % 0 lf 1006,7 hPa 0,0 l/m 0 min 0,0 UV-I 0 W/m 20,6 km/h (4 Bft)
30.01.2013 02:24 12,4 C 10,7 C 92 % 0 lf 1006,7 hPa 0,0 l/m 0 min 0,0 UV-I 0 W/m 18,0 km/h (3 Bft)
30.01.2013 02:26 12,4 C 10,7 C 92 % 0 lf 1006,7 hPa 0,0 l/m 0 min 0,0 UV-I 0 W/m 23,2 km/h (4 Bft)
30.01.2013 02:28 12,4 C 11,2 C 92 % 0 lf 1006,8 hPa 0,0 l/m 0 min 0,0 UV-I 0 W/m 23,2 km/h (4 Bft)
30.01.2013 02:30 12,4 C 11,2 C 92 % 0 lf 1006,8 hPa 0,0 l/m 0 min 0,0 UV-I 0 W/m 18,0 km/h (3 Bft)
30.01.2013 02:32 12,4 C 11,2 C 92 % 0 lf 1006,7 hPa 0,0 l/m 0 min 0,0 UV-I 0 W/m 18,0 km/h (3 Bft)
30.01.2013 02:34 12,4 C 11,2 C 92 % 0 lf 1006,8 hPa 0,0 l/m 0 min 0,0 UV-I 0 W/m 23,2 km/h (4 Bft)
30.01.2013 02:36 12,4 C 11,2 C 92 % 0 lf 1006,8 hPa 0,0 l/m 0 min 0,0 UV-I 0 W/m 15,4 km/h (3 Bft)
30.01.2013 02:38 12,4 C 11,2 C 92 % 0 lf 1006,7 hPa 0,0 l/m 0 min 0,0 UV-I 0 W/m 15,4 km/h (3 Bft)
30.01.2013 02:40 12,4 C 11,2 C 92 % 0 lf 1006,7 hPa 0,0 l/m 0 min 0,0 UV-I 0 W/m 15,4 km/h (3 Bft)
30.01.2013 02:42 12,4 C 11,2 C 92 % 0 lf 1006,7 hPa 0,0 l/m 0 min 0,0 UV-I 0 W/m 12,9 km/h (3 Bft)
30.01.2013 02:44 12,4 C 11,2 C 92 % 0 lf 1006,7 hPa 0,0 l/m 0 min 0,0 UV-I 0 W/m 25,7 km/h (4 Bft)
30.01.2013 02:46 12,4 C 11,2 C 92 % 0 lf 1006,6 hPa 0,0 l/m 0 min 0,0 UV-I 0 W/m 10,3 km/h (2 Bft)
30.01.2013 02:48 12,4 C 10,7 C 91 % 0 lf 1006,6 hPa 0,0 l/m 0 min 0,0 UV-I 0 W/m 15,4 km/h (3 Bft)
30.01.2013 02:50 12,4 C 11,2 C 91 % 0 lf 1006,6 hPa 0,0 l/m 0 min 0,0 UV-I 0 W/m 20,6 km/h (4 Bft)
30.01.2013 02:52 12,4 C 10,7 C 91 % 0 lf 1006,8 hPa 0,0 l/m 0 min 0,0 UV-I 0 W/m 25,7 km/h (4 Bft)
30.01.2013 02:54 12,4 C 10,7 C 91 % 0 lf 1006,7 hPa 0,0 l/m 0 min 0,0 UV-I 0 W/m 36,0 km/h (5 Bft)
30.01.2013 02:56 12,4 C 11,2 C 91 % 0 lf 1006,5 hPa 0,0 l/m 0 min 0,0 UV-I 0 W/m 25,7 km/h (4 Bft)
30.01.2013 02:58 12,4 C 10,7 C 91 % 0 lf 1006,7 hPa 0,0 l/m 0 min 0,0 UV-I 0 W/m 7,7 km/h (2 Bft)
30.01.2013 03:00 12,4 C 11,2 C 91 % 0 lf 1006,5 hPa 0,0 l/m 0 min 0,0 UV-I 0 W/m 30,9 km/h (5 Bft)
30.01.2013 03:02 12,4 C 10,7 C 91 % 0 lf 1006,5 hPa 0,0 l/m 0 min 0,0 UV-I 0 W/m 20,6 km/h (4 Bft)
30.01.2013 03:04 12,3 C 10,7 C 91 % 0 lf 1006,4 hPa 0,0 l/m 0 min 0,0 UV-I 0 W/m 18,0 km/h (3 Bft)
30.01.2013 03:06 12,3 C 10,7 C 91 % 0 lf 1006,5 hPa 0,0 l/m 0 min 0,0 UV-I 0 W/m 12,9 km/h (3 Bft)
30.01.2013 03:08 12,3 C 10,7 C 91 % 0 lf 1006,5 hPa 0,0 l/m 0 min 0,0 UV-I 0 W/m 23,2 km/h (4 Bft)
30.01.2013 03:10 12,3 C 10,7 C 91 % 0 lf 1006,4 hPa 0,0 l/m 0 min 0,0 UV-I 0 W/m 15,4 km/h (3 Bft)
30.01.2013 03:12 12,3 C 10,7 C 91 % 0 lf 1006,3 hPa 0,0 l/m 0 min 0,0 UV-I 0 W/m 15,4 km/h (3 Bft)
30.01.2013 03:14 12,3 C 10,7 C 91 % 0 lf 1006,3 hPa 0,0 l/m 0 min 0,0 UV-I 0 W/m 15,4 km/h (3 Bft)
30.01.2013 03:16 12,3 C 10,7 C 91 % 0 lf 1006,3 hPa 0,0 l/m 0 min 0,0 UV-I 0 W/m 18,0 km/h (3 Bft)
30.01.2013 03:18 12,2 C 10,7 C 91 % 0 lf 1006,4 hPa 0,0 l/m 0 min 0,0 UV-I 0 W/m 18,0 km/h (3 Bft)
30.01.2013 03:20 12,3 C 10,7 C 91 % 0 lf 1006,5 hPa 0,0 l/m 0 min 0,0 UV-I 0 W/m 23,2 km/h (4 Bft)
30.01.2013 03:22 12,3 C 10,7 C 90 % 0 lf 1006,4 hPa 0,0 l/m 0 min 0,0 UV-I 0 W/m 25,7 km/h (4 Bft)
30.01.2013 03:24 12,3 C 10,7 C 90 % 0 lf 1006,2 hPa 0,0 l/m 0 min 0,0 UV-I 0 W/m 15,4 km/h (3 Bft)
30.01.2013 03:26 12,3 C 10,7 C 90 % 0 lf 1006,1 hPa 0,0 l/m 0 min 0,0 UV-I 0 W/m 20,6 km/h (4 Bft)
30.01.2013 03:28 12,3 C 10,7 C 90 % 0 lf 1006,2 hPa 0,0 l/m 0 min 0,0 UV-I 0 W/m 18,0 km/h (3 Bft)
30.01.2013 03:30 12,3 C 10,7 C 90 % 0 lf 1006,2 hPa 0,0 l/m 0 min 0,0 UV-I 0 W/m 15,4 km/h (3 Bft)
30.01.2013 03:32 12,3 C 10,7 C 90 % 0 lf 1006,1 hPa 0,0 l/m 0 min 0,0 UV-I 0 W/m 15,4 km/h (3 Bft)
30.01.2013 03:34 12,3 C 11,2 C 90 % 0 lf 1006,2 hPa 0,0 l/m 0 min 0,0 UV-I 0 W/m 15,4 km/h (3 Bft)
30.01.2013 03:36 12,3 C 11,2 C 90 % 0 lf 1006,1 hPa 0,0 l/m 0 min 0,0 UV-I 0 W/m 25,7 km/h (4 Bft)
30.01.2013 03:38 12,3 C 11,2 C 90 % 0 lf 1006,1 hPa 0,0 l/m 0 min 0,0 UV-I 0 W/m 20,6 km/h (4 Bft)
30.01.2013 03:40 12,4 C 11,2 C 90 % 0 lf 1006,1 hPa 0,0 l/m 0 min 0,0 UV-I 0 W/m 23,2 km/h (4 Bft)
30.01.2013 03:42 12,4 C 11,2 C 90 % 0 lf 1005,9 hPa 0,0 l/m 0 min 0,0 UV-I 0 W/m 33,5 km/h (5 Bft)
30.01.2013 03:44 12,4 C 11,2 C 89 % 0 lf 1005,9 hPa 0,0 l/m 0 min 0,0 UV-I 0 W/m 23,2 km/h (4 Bft)
30.01.2013 03:46 12,4 C 11,2 C 89 % 0 lf 1006,0 hPa 0,0 l/m 0 min 0,0 UV-I 0 W/m 30,9 km/h (5 Bft)
30.01.2013 03:48 12,5 C 11,2 C 89 % 0 lf 1006,1 hPa 0,0 l/m 0 min 0,0 UV-I 0 W/m 33,5 km/h (5 Bft)
30.01.2013 03:50 12,6 C 11,2 C 89 % 0 lf 1005,9 hPa 0,0 l/m 0 min 0,0 UV-I 0 W/m 23,2 km/h (4 Bft)
30.01.2013 03:52 12,6 C 11,2 C 89 % 0 lf 1005,8 hPa 0,0 l/m 0 min 0,0 UV-I 0 W/m 12,9 km/h (3 Bft)
30.01.2013 03:54 12,6 C 11,2 C 89 % 0 lf 1005,7 hPa 0,0 l/m 0 min 0,0 UV-I 0 W/m 20,6 km/h (4 Bft)
30.01.2013 03:56 12,6 C 11,2 C 88 % 0 lf 1006,1 hPa 0,0 l/m 0 min 0,0 UV-I 0 W/m 38,6 km/h (5 Bft)
30.01.2013 03:58 12,7 C 11,2 C 89 % 0 lf 1005,8 hPa 0,0 l/m 0 min 0,0 UV-I 0 W/m 25,7 km/h (4 Bft)
30.01.2013 04:00 12,7 C 11,2 C 88 % 0 lf 1005,8 hPa 0,0 l/m 0 min 0,0 UV-I 0 W/m 30,9 km/h (5 Bft)
30.01.2013 04:02 12,7 C 11,2 C 88 % 0 lf 1005,7 hPa 0,0 l/m 0 min 0,0 UV-I 0 W/m 23,2 km/h (4 Bft)
30.01.2013 04:04 12,7 C 11,2 C 89 % 0 lf 1005,9 hPa 0,0 l/m 0 min 0,0 UV-I 0 W/m 28,3 km/h (4 Bft)
30.01.2013 04:06 12,7 C 11,2 C 88 % 0 lf 1005,9 hPa 0,0 l/m 0 min 0,0 UV-I 0 W/m 51,5 km/h (7 Bft)
30.01.2013 04:08 12,7 C 11,2 C 89 % 0 lf 1005,7 hPa 0,0 l/m 0 min 0,0 UV-I 0 W/m 20,6 km/h (4 Bft)
30.01.2013 04:10 12,7 C 11,2 C 89 % 0 lf 1005,7 hPa 0,0 l/m 0 min 0,0 UV-I 0 W/m 25,7 km/h (4 Bft)
30.01.2013 04:12 12,7 C 11,2 C 89 % 0 lf 1005,7 hPa 0,0 l/m 0 min 0,0 UV-I 0 W/m 28,3 km/h (4 Bft)
30.01.2013 04:14 12,7 C 11,2 C 89 % 0 lf 1005,7 hPa 0,0 l/m 0 min 0,0 UV-I 0 W/m 28,3 km/h (4 Bft)
30.01.2013 04:16 12,7 C 11,2 C 89 % 0 lf 1005,6 hPa 0,0 l/m 0 min 0,0 UV-I 0 W/m 23,2 km/h (4 Bft)
30.01.2013 04:18 12,7 C 11,2 C 89 % 0 lf 1005,7 hPa 0,0 l/m 0 min 0,0 UV-I 0 W/m 33,5 km/h (5 Bft)
30.01.2013 04:20 12,7 C 11,2 C 89 % 0 lf 1005,8 hPa 0,0 l/m 0 min 0,0 UV-I 0 W/m 38,6 km/h (5 Bft)
30.01.2013 04:22 12,7 C 11,2 C 89 % 0 lf 1005,7 hPa 0,0 l/m 0 min 0,0 UV-I 0 W/m 23,2 km/h (4 Bft)
30.01.2013 04:24 12,7 C 11,2 C 89 % 0 lf 1005,7 hPa 0,0 l/m 0 min 0,0 UV-I 0 W/m 30,9 km/h (5 Bft)
30.01.2013 04:26 12,7 C 11,2 C 89 % 0 lf 1005,7 hPa 0,0 l/m 0 min 0,0 UV-I 0 W/m 25,7 km/h (4 Bft)
30.01.2013 04:28 12,7 C 11,2 C 89 % 0 lf 1005,6 hPa 0,0 l/m 0 min 0,0 UV-I 0 W/m 25,7 km/h (4 Bft)
30.01.2013 04:30 12,7 C 11,2 C 90 % 2 lf 1005,5 hPa 0,0 l/m 0 min 0,0 UV-I 0 W/m 20,6 km/h (4 Bft)
30.01.2013 04:32 12,7 C 11,2 C 90 % 0 lf 1005,7 hPa 0,0 l/m 0 min 0,0 UV-I 0 W/m 28,3 km/h (4 Bft)
30.01.2013 04:34 12,7 C 11,2 C 90 % 4 lf 1005,6 hPa 0,0 l/m 0 min 0,0 UV-I 0 W/m 25,7 km/h (4 Bft)
30.01.2013 04:36 12,7 C 11,2 C 90 % 3 lf 1005,6 hPa 0,0 l/m 0 min 0,0 UV-I 0 W/m 20,6 km/h (4 Bft)
30.01.2013 04:38 12,7 C 11,2 C 90 % 1 lf 1005,5 hPa 0,0 l/m 0 min 0,0 UV-I 0 W/m 30,9 km/h (5 Bft)
30.01.2013 04:40 12,8 C 11,2 C 90 % 1 lf 1005,7 hPa 0,0 l/m 0 min 0,0 UV-I 0 W/m 25,7 km/h (4 Bft)
30.01.2013 04:42 12,8 C 11,2 C 90 % 0 lf 1005,6 hPa 0,0 l/m 0 min 0,0 UV-I 0 W/m 30,9 km/h (5 Bft)
30.01.2013 04:44 12,8 C 11,2 C 90 % 0 lf 1005,7 hPa 0,0 l/m 0 min 0,0 UV-I 0 W/m 33,5 km/h (5 Bft)
30.01.2013 04:46 12,8 C 11,2 C 90 % 0 lf 1005,6 hPa 0,0 l/m 0 min 0,0 UV-I 0 W/m 15,4 km/h (3 Bft)
30.01.2013 04:48 12,8 C 11,2 C 90 % 0 lf 1005,6 hPa 0,0 l/m 0 min 0,0 UV-I 0 W/m 28,3 km/h (4 Bft)
30.01.2013 04:50 12,9 C 11,8 C 90 % 0 lf 1005,6 hPa 0,0 l/m 0 min 0,0 UV-I 0 W/m 33,5 km/h (5 Bft)
30.01.2013 04:52 12,9 C 11,8 C 90 % 0 lf 1005,7 hPa 0,0 l/m 0 min 0,0 UV-I 0 W/m 30,9 km/h (5 Bft)
30.01.2013 04:54 12,9 C 11,8 C 89 % 0 lf 1005,6 hPa 0,0 l/m 0 min 0,0 UV-I 0 W/m 23,2 km/h (4 Bft)
30.01.2013 04:56 12,9 C 11,8 C 89 % 0 lf 1005,7 hPa 0,0 l/m 0 min 0,0 UV-I 0 W/m 18,0 km/h (3 Bft)
30.01.2013 04:58 12,9 C 11,2 C 89 % 0 lf 1005,9 hPa 0,0 l/m 0 min 0,0 UV-I 0 W/m 33,5 km/h (5 Bft)
30.01.2013 05:00 12,9 C 11,8 C 89 % 0 lf 1005,9 hPa 0,0 l/m 0 min 0,0 UV-I 0 W/m 33,5 km/h (5 Bft)
30.01.2013 05:02 13,0 C 11,8 C 89 % 0 lf 1005,8 hPa 0,0 l/m 0 min 0,0 UV-I 0 W/m 18,0 km/h (3 Bft)
30.01.2013 05:04 13,0 C 11,8 C 89 % 0 lf 1005,8 hPa 0,0 l/m 0 min 0,0 UV-I 0 W/m 46,3 km/h (6 Bft)
30.01.2013 05:06 13,0 C 11,8 C 89 % 0 lf 1005,9 hPa 0,0 l/m 0 min 0,0 UV-I 0 W/m 15,4 km/h (3 Bft)
30.01.2013 05:08 13,0 C 11,8 C 89 % 0 lf 1005,8 hPa 0,0 l/m 0 min 0,0 UV-I 0 W/m 18,0 km/h (3 Bft)
30.01.2013 05:10 13,0 C 11,8 C 89 % 0 lf 1005,8 hPa 0,0 l/m 0 min 0,0 UV-I 0 W/m 23,2 km/h (4 Bft)
30.01.2013 05:12 13,0 C 11,8 C 89 % 0 lf 1005,5 hPa 0,0 l/m 0 min 0,0 UV-I 0 W/m 36,0 km/h (5 Bft)
30.01.2013 05:14 13,0 C 11,8 C 89 % 0 lf 1005,5 hPa 0,0 l/m 0 min 0,0 UV-I 0 W/m 28,3 km/h (4 Bft)
30.01.2013 05:16 13,1 C 11,8 C 89 % 0 lf 1005,7 hPa 0,0 l/m 0 min 0,0 UV-I 0 W/m 23,2 km/h (4 Bft)
30.01.2013 05:18 13,1 C 11,8 C 89 % 0 lf 1005,6 hPa 0,0 l/m 0 min 0,0 UV-I 0 W/m 20,6 km/h (4 Bft)
30.01.2013 05:20 13,1 C 11,8 C 89 % 0 lf 1005,3 hPa 0,0 l/m 0 min 0,0 UV-I 0 W/m 33,5 km/h (5 Bft)
30.01.2013 05:22 13,1 C 11,8 C 89 % 0 lf 1005,4 hPa 0,0 l/m 0 min 0,0 UV-I 0 W/m 25,7 km/h (4 Bft)
30.01.2013 05:24 13,1 C 11,8 C 89 % 0 lf 1005,5 hPa 0,0 l/m 0 min 0,0 UV-I 0 W/m 20,6 km/h (4 Bft)
30.01.2013 05:26 13,1 C 11,8 C 89 % 0 lf 1005,4 hPa 0,0 l/m 0 min 0,0 UV-I 0 W/m 30,9 km/h (5 Bft)
30.01.2013 05:28 13,1 C 11,8 C 89 % 0 lf 1005,4 hPa 0,0 l/m 0 min 0,0 UV-I 0 W/m 12,9 km/h (3 Bft)
30.01.2013 05:30 13,1 C 11,8 C 89 % 0 lf 1005,4 hPa 0,0 l/m 0 min 0,0 UV-I 0 W/m 23,2 km/h (4 Bft)
30.01.2013 05:32 13,1 C 11,8 C 89 % 0 lf 1005,5 hPa 0,0 l/m 0 min 0,0 UV-I 0 W/m 23,2 km/h (4 Bft)
30.01.2013 05:34 13,1 C 11,8 C 89 % 0 lf 1005,5 hPa 0,0 l/m 0 min 0,0 UV-I 0 W/m 23,2 km/h (4 Bft)
30.01.2013 05:36 13,1 C 11,8 C 89 % 0 lf 1005,3 hPa 0,0 l/m 0 min 0,0 UV-I 0 W/m 36,0 km/h (5 Bft)
30.01.2013 05:38 13,1 C 11,8 C 89 % 0 lf 1005,5 hPa 0,0 l/m 0 min 0,0 UV-I 0 W/m 28,3 km/h (4 Bft)
30.01.2013 05:40 13,1 C 11,8 C 89 % 0 lf 1005,4 hPa 0,0 l/m 0 min 0,0 UV-I 0 W/m 30,9 km/h (5 Bft)
30.01.2013 05:42 13,1 C 11,8 C 89 % 0 lf 1005,4 hPa 0,0 l/m 0 min 0,0 UV-I 0 W/m 33,5 km/h (5 Bft)
30.01.2013 05:44 13,1 C 11,8 C 89 % 0 lf 1005,4 hPa 0,0 l/m 0 min 0,0 UV-I 0 W/m 36,0 km/h (5 Bft)
30.01.2013 05:46 13,1 C 11,8 C 88 % 0 lf 1005,4 hPa 0,0 l/m 0 min 0,0 UV-I 0 W/m 25,7 km/h (4 Bft)
30.01.2013 05:48 13,2 C 11,8 C 88 % 0 lf 1005,4 hPa 0,0 l/m 0 min 0,0 UV-I 0 W/m 25,7 km/h (4 Bft)
30.01.2013 05:50 13,2 C 11,8 C 88 % 0 lf 1005,2 hPa 0,0 l/m 0 min 0,0 UV-I 0 W/m 28,3 km/h (4 Bft)
30.01.2013 05:52 13,2 C 11,8 C 88 % 0 lf 1005,3 hPa 0,0 l/m 0 min 0,0 UV-I 0 W/m 36,0 km/h (5 Bft)
30.01.2013 05:54 13,2 C 11,8 C 88 % 0 lf 1005,3 hPa 0,0 l/m 0 min 0,0 UV-I 0 W/m 36,0 km/h (5 Bft)
30.01.2013 05:56 13,2 C 11,8 C 88 % 0 lf 1005,3 hPa 0,0 l/m 0 min 0,0 UV-I 0 W/m 15,4 km/h (3 Bft)
30.01.2013 05:58 13,2 C 11,8 C 88 % 0 lf 1005,2 hPa 0,0 l/m 0 min 0,0 UV-I 0 W/m 33,5 km/h (5 Bft)
30.01.2013 06:00 13,2 C 11,8 C 88 % 0 lf 1005,2 hPa 0,0 l/m 0 min 0,0 UV-I 0 W/m 18,0 km/h (3 Bft)
30.01.2013 06:02 13,2 C 11,8 C 88 % 0 lf 1005,0 hPa 0,0 l/m 0 min 0,0 UV-I 0 W/m 25,7 km/h (4 Bft)
30.01.2013 06:04 13,2 C 11,8 C 88 % 0 lf 1004,9 hPa 0,0 l/m 0 min 0,0 UV-I 0 W/m 18,0 km/h (3 Bft)
30.01.2013 06:06 13,2 C 11,8 C 88 % 0 lf 1004,9 hPa 0,0 l/m 0 min 0,0 UV-I 0 W/m 23,2 km/h (4 Bft)
30.01.2013 06:08 13,2 C 11,8 C 88 % 0 lf 1004,9 hPa 0,0 l/m 0 min 0,0 UV-I 0 W/m 18,0 km/h (3 Bft)
30.01.2013 06:10 13,2 C 11,8 C 88 % 0 lf 1004,9 hPa 0,0 l/m 0 min 0,0 UV-I 0 W/m 23,2 km/h (4 Bft)
30.01.2013 06:12 13,2 C 11,8 C 88 % 0 lf 1005,0 hPa 0,0 l/m 0 min 0,0 UV-I 0 W/m 28,3 km/h (4 Bft)
30.01.2013 06:14 13,2 C 11,8 C 88 % 0 lf 1004,9 hPa 0,0 l/m 0 min 0,0 UV-I 0 W/m 33,5 km/h (5 Bft)
30.01.2013 06:16 13,2 C 11,8 C 88 % 0 lf 1004,9 hPa 0,0 l/m 0 min 0,0 UV-I 0 W/m 25,7 km/h (4 Bft)
30.01.2013 06:18 13,3 C 11,8 C 87 % 0 lf 1004,8 hPa 0,0 l/m 0 min 0,0 UV-I 0 W/m 30,9 km/h (5 Bft)
30.01.2013 06:20 13,3 C 11,8 C 88 % 0 lf 1004,9 hPa 0,0 l/m 0 min 0,0 UV-I 0 W/m 28,3 km/h (4 Bft)
30.01.2013 06:22 13,3 C 11,8 C 87 % 0 lf 1004,8 hPa 0,0 l/m 0 min 0,0 UV-I 0 W/m 18,0 km/h (3 Bft)
30.01.2013 06:24 13,3 C 11,8 C 87 % 0 lf 1004,7 hPa 0,0 l/m 0 min 0,0 UV-I 0 W/m 23,2 km/h (4 Bft)
30.01.2013 06:26 13,3 C 11,8 C 87 % 0 lf 1004,8 hPa 0,0 l/m 0 min 0,0 UV-I 0 W/m 18,0 km/h (3 Bft)
30.01.2013 06:28 13,3 C 11,8 C 87 % 3 lf 1004,9 hPa 0,0 l/m 0 min 0,0 UV-I 0 W/m 33,5 km/h (5 Bft)
30.01.2013 06:30 13,3 C 11,8 C 88 % 14 lf 1004,8 hPa 0,0 l/m 0 min 0,0 UV-I 0 W/m 25,7 km/h (4 Bft)
30.01.2013 06:32 13,4 C 11,2 C 88 % 15 lf 1004,8 hPa 0,0 l/m 0 min 0,0 UV-I 0 W/m 41,2 km/h (6 Bft)
30.01.2013 06:34 13,3 C 10,7 C 88 % 15 lf 1004,9 hPa 0,0 l/m 0 min 0,0 UV-I 0 W/m 30,9 km/h (5 Bft)
30.01.2013 06:36 13,3 C 10,7 C 89 % 15 lf 1004,9 hPa 0,0 l/m 0 min 0,0 UV-I 0 W/m 25,7 km/h (4 Bft)
30.01.2013 06:38 13,3 C 10,7 C 89 % 15 lf 1004,7 hPa 0,0 l/m 0 min 0,0 UV-I 0 W/m 36,0 km/h (5 Bft)
30.01.2013 06:40 13,2 C 10,7 C 90 % 15 lf 1004,7 hPa 0,0 l/m 0 min 0,0 UV-I 0 W/m 28,3 km/h (4 Bft)
30.01.2013 06:42 13,2 C 10,7 C 90 % 15 lf 1004,7 hPa 0,0 l/m 0 min 0,0 UV-I 0 W/m 20,6 km/h (4 Bft)
30.01.2013 06:44 13,1 C 10,7 C 90 % 15 lf 1004,7 hPa 0,0 l/m 0 min 0,0 UV-I 0 W/m 18,0 km/h (3 Bft)
30.01.2013 06:46 13,1 C 10,7 C 91 % 15 lf 1004,5 hPa 0,0 l/m 0 min 0,0 UV-I 0 W/m 28,3 km/h (4 Bft)
30.01.2013 06:48 13,0 C 10,7 C 91 % 15 lf 1004,5 hPa 0,0 l/m 0 min 0,0 UV-I 0 W/m 25,7 km/h (4 Bft)
30.01.2013 06:50 13,0 C 10,7 C 91 % 15 lf 1004,6 hPa 0,0 l/m 0 min 0,0 UV-I 0 W/m 28,3 km/h (4 Bft)
30.01.2013 06:52 12,9 C 10,7 C 91 % 15 lf 1004,5 hPa 0,0 l/m 0 min 0,0 UV-I 0 W/m 23,2 km/h (4 Bft)
30.01.2013 06:54 12,9 C 10,7 C 91 % 15 lf 1004,7 hPa 0,2 l/m 0 min 0,0 UV-I 0 W/m 28,3 km/h (4 Bft)
30.01.2013 06:56 12,9 C 10,7 C 91 % 15 lf 1004,5 hPa 0,0 l/m 0 min 0,0 UV-I 0 W/m 23,2 km/h (4 Bft)
30.01.2013 06:58 12,9 C 10,7 C 91 % 15 lf 1004,8 hPa 0,0 l/m 0 min 0,0 UV-I 0 W/m 30,9 km/h (5 Bft)
30.01.2013 07:00 12,9 C 10,7 C 91 % 15 lf 1004,4 hPa 0,0 l/m 0 min 0,0 UV-I 0 W/m 23,2 km/h (4 Bft)
30.01.2013 07:02 12,9 C 10,7 C 91 % 15 lf 1004,4 hPa 0,0 l/m 0 min 0,0 UV-I 0 W/m 18,0 km/h (3 Bft)
30.01.2013 07:04 12,9 C 11,2 C 91 % 15 lf 1004,3 hPa 0,0 l/m 0 min 0,0 UV-I 0 W/m 23,2 km/h (4 Bft)
30.01.2013 07:06 12,9 C 11,2 C 92 % 15 lf 1004,3 hPa 0,0 l/m 0 min 0,0 UV-I 0 W/m 30,9 km/h (5 Bft)
30.01.2013 07:08 12,9 C 11,2 C 92 % 14 lf 1004,2 hPa 0,0 l/m 0 min 0,0 UV-I 0 W/m 30,9 km/h (5 Bft)
30.01.2013 07:10 12,9 C 11,2 C 92 % 13 lf 1004,2 hPa 0,0 l/m 0 min 0,0 UV-I 0 W/m 36,0 km/h (5 Bft)
30.01.2013 07:12 12,9 C 11,2 C 91 % 12 lf 1004,2 hPa 0,0 l/m 0 min 0,0 UV-I 0 W/m 33,5 km/h (5 Bft)
30.01.2013 07:14 12,9 C 11,2 C 91 % 10 lf 1004,2 hPa 0,0 l/m 0 min 0,0 UV-I 0 W/m 36,0 km/h (5 Bft)
30.01.2013 07:16 12,9 C 11,2 C 91 % 7 lf 1004,2 hPa 0,0 l/m 0 min 0,0 UV-I 0 W/m 28,3 km/h (4 Bft)
30.01.2013 07:18 12,9 C 11,2 C 91 % 2 lf 1004,3 hPa 0,0 l/m 0 min 0,0 UV-I 0 W/m 33,5 km/h (5 Bft)
30.01.2013 07:20 13,0 C 11,8 C 91 % 0 lf 1004,1 hPa 0,0 l/m 0 min 0,0 UV-I 0 W/m 23,2 km/h (4 Bft)
30.01.2013 07:22 13,0 C 11,8 C 91 % 0 lf 1004,1 hPa 0,0 l/m 0 min 0,0 UV-I 0 W/m 23,2 km/h (4 Bft)
30.01.2013 07:24 13,0 C 11,8 C 91 % 0 lf 1004,2 hPa 0,0 l/m 0 min 0,0 UV-I 0 W/m 28,3 km/h (4 Bft)
30.01.2013 07:26 13,0 C 11,8 C 91 % 1 lf 1004,1 hPa 0,0 l/m 0 min 0,0 UV-I 0 W/m 30,9 km/h (5 Bft)
30.01.2013 07:28 13,0 C 11,8 C 91 % 0 lf 1004,0 hPa 0,0 l/m 0 min 0,0 UV-I 0 W/m 25,7 km/h (4 Bft)
30.01.2013 07:30 13,0 C 11,2 C 91 % 0 lf 1003,9 hPa 0,0 l/m 0 min 0,0 UV-I 0 W/m 20,6 km/h (4 Bft)
30.01.2013 07:32 13,0 C 11,8 C 91 % 0 lf 1003,9 hPa 0,0 l/m 0 min 0,0 UV-I 0 W/m 38,6 km/h (5 Bft)
30.01.2013 07:34 13,0 C 11,8 C 91 % 0 lf 1003,7 hPa 0,0 l/m 0 min 0,0 UV-I 0 W/m 25,7 km/h (4 Bft)
30.01.2013 07:36 13,0 C 11,8 C 91 % 0 lf 1003,7 hPa 0,0 l/m 0 min 0,0 UV-I 0 W/m 20,6 km/h (4 Bft)
30.01.2013 07:38 13,0 C 11,2 C 91 % 0 lf 1003,8 hPa 0,0 l/m 0 min 0,0 UV-I 0 W/m 23,2 km/h (4 Bft)
30.01.2013 07:40 13,0 C 11,2 C 91 % 0 lf 1003,7 hPa 0,0 l/m 0 min 0,0 UV-I 0 W/m 25,7 km/h (4 Bft)
30.01.2013 07:42 12,9 C 11,2 C 91 % 0 lf 1003,6 hPa 0,0 l/m 0 min 0,0 UV-I 0 W/m 20,6 km/h (4 Bft)
30.01.2013 07:44 12,9 C 11,2 C 91 % 0 lf 1003,6 hPa 0,0 l/m 0 min 0,0 UV-I 0 W/m 15,4 km/h (3 Bft)
30.01.2013 07:46 12,9 C 11,2 C 91 % 0 lf 1003,6 hPa 0,0 l/m 0 min 0,0 UV-I 0 W/m 20,6 km/h (4 Bft)
30.01.2013 07:48 12,9 C 11,2 C 91 % 0 lf 1003,7 hPa 0,0 l/m 0 min 0,0 UV-I 0 W/m 23,2 km/h (4 Bft)
30.01.2013 07:50 12,9 C 11,2 C 91 % 0 lf 1003,6 hPa 0,0 l/m 0 min 0,0 UV-I 0 W/m 30,9 km/h (5 Bft)
30.01.2013 07:52 12,9 C 11,2 C 91 % 0 lf 1003,6 hPa 0,0 l/m 0 min 0,0 UV-I 0 W/m 23,2 km/h (4 Bft)
30.01.2013 07:54 12,9 C 11,2 C 91 % 0 lf 1003,6 hPa 0,0 l/m 0 min 0,0 UV-I 0 W/m 15,4 km/h (3 Bft)
30.01.2013 07:56 12,9 C 11,8 C 91 % 0 lf 1003,7 hPa 0,0 l/m 0 min 0,0 UV-I 0 W/m 23,2 km/h (4 Bft)
30.01.2013 07:58 12,9 C 11,8 C 91 % 0 lf 1003,7 hPa 0,0 l/m 0 min 0,0 UV-I 0 W/m 25,7 km/h (4 Bft)
30.01.2013 08:00 13,0 C 11,8 C 91 % 0 lf 1003,7 hPa 0,0 l/m 0 min 0,0 UV-I 0 W/m 36,0 km/h (5 Bft)
30.01.2013 08:02 13,0 C 11,8 C 91 % 0 lf 1003,8 hPa 0,0 l/m 0 min 0,0 UV-I 0 W/m 25,7 km/h (4 Bft)
30.01.2013 08:04 13,0 C 11,8 C 91 % 0 lf 1004,0 hPa 0,0 l/m 0 min 0,0 UV-I 0 W/m 28,3 km/h (4 Bft)
30.01.2013 08:06 13,1 C 11,8 C 90 % 0 lf 1003,9 hPa 0,0 l/m 0 min 0,0 UV-I 0 W/m 20,6 km/h (4 Bft)
30.01.2013 08:08 13,1 C 11,8 C 90 % 0 lf 1003,7 hPa 0,0 l/m 0 min 0,0 UV-I 0 W/m 43,8 km/h (6 Bft)
30.01.2013 08:10 13,2 C 11,8 C 90 % 0 lf 1003,7 hPa 0,0 l/m 0 min 0,0 UV-I 0 W/m 41,2 km/h (6 Bft)
30.01.2013 08:12 13,2 C 11,8 C 90 % 0 lf 1003,5 hPa 0,0 l/m 0 min 0,0 UV-I 0 W/m 36,0 km/h (5 Bft)
30.01.2013 08:14 13,2 C 11,8 C 89 % 2 lf 1003,4 hPa 0,0 l/m 0 min 0,0 UV-I 0 W/m 28,3 km/h (4 Bft)
30.01.2013 08:16 13,3 C 11,8 C 89 % 0 lf 1003,8 hPa 0,0 l/m 0 min 0,0 UV-I 0 W/m 38,6 km/h (5 Bft)
30.01.2013 08:18 13,3 C 11,8 C 89 % 0 lf 1003,9 hPa 0,0 l/m 0 min 0,0 UV-I 0 W/m 30,9 km/h (5 Bft)
30.01.2013 08:20 13,4 C 11,8 C 88 % 0 lf 1003,6 hPa 0,0 l/m 0 min 0,0 UV-I 0 W/m 30,9 km/h (5 Bft)
30.01.2013 08:22 13,4 C 12,3 C 88 % 0 lf 1003,7 hPa 0,0 l/m 0 min 0,0 UV-I 0 W/m 56,6 km/h (7 Bft)
30.01.2013 08:24 13,4 C 12,3 C 88 % 0 lf 1003,5 hPa 0,0 l/m 0 min 0,0 UV-I 0 W/m 56,6 km/h (7 Bft)
30.01.2013 08:26 13,4 C 12,3 C 88 % 0 lf 1003,6 hPa 0,0 l/m 0 min 0,0 UV-I 0 W/m 41,2 km/h (6 Bft)
30.01.2013 08:28 13,5 C 11,8 C 87 % 0 lf 1003,5 hPa 0,0 l/m 0 min 0,0 UV-I 0 W/m 23,2 km/h (4 Bft)
30.01.2013 08:30 13,5 C 11,8 C 87 % 1 lf 1003,4 hPa 0,0 l/m 0 min 0,0 UV-I 5 W/m 23,2 km/h (4 Bft)
30.01.2013 08:32 13,5 C 11,8 C 87 % 0 lf 1003,5 hPa 0,0 l/m 0 min 0,0 UV-I 7 W/m 43,8 km/h (6 Bft)
30.01.2013 08:34 13,6 C 11,8 C 87 % 2 lf 1003,3 hPa 0,0 l/m 0 min 0,0 UV-I 7 W/m 28,3 km/h (4 Bft)
30.01.2013 08:36 13,6 C 11,8 C 87 % 8 lf 1003,2 hPa 0,0 l/m 0 min 0,0 UV-I 7 W/m 33,5 km/h (5 Bft)
30.01.2013 08:38 13,6 C 11,8 C 87 % 7 lf 1003,2 hPa 0,0 l/m 0 min 0,0 UV-I 7 W/m 33,5 km/h (5 Bft)
30.01.2013 08:40 13,5 C 11,8 C 88 % 4 lf 1003,2 hPa 0,0 l/m 0 min 0,0 UV-I 7 W/m 33,5 km/h (5 Bft)
30.01.2013 08:42 13,5 C 11,8 C 88 % 1 lf 1003,3 hPa 0,0 l/m 0 min 0,0 UV-I 5 W/m 25,7 km/h (4 Bft)
30.01.2013 08:44 13,4 C 11,8 C 88 % 1 lf 1003,2 hPa 0,0 l/m 0 min 0,0 UV-I 5 W/m 36,0 km/h (5 Bft)
30.01.2013 08:46 13,4 C 11,8 C 88 % 1 lf 1003,3 hPa 0,0 l/m 0 min 0,0 UV-I 5 W/m 18,0 km/h (3 Bft)
30.01.2013 08:48 13,4 C 11,8 C 88 % 0 lf 1003,3 hPa 0,0 l/m 0 min 0,0 UV-I 7 W/m 30,9 km/h (5 Bft)
30.01.2013 08:50 13,4 C 11,8 C 89 % 0 lf 1003,3 hPa 0,0 l/m 0 min 0,0 UV-I 5 W/m 15,4 km/h (3 Bft)
30.01.2013 08:52 13,4 C 11,8 C 89 % 0 lf 1003,3 hPa 0,0 l/m 0 min 0,0 UV-I 7 W/m 25,7 km/h (4 Bft)
30.01.2013 08:54 13,4 C 11,8 C 89 % 0 lf 1003,1 hPa 0,0 l/m 0 min 0,0 UV-I 9 W/m 36,0 km/h (5 Bft)
30.01.2013 08:56 13,3 C 11,8 C 89 % 0 lf 1003,1 hPa 0,0 l/m 0 min 0,0 UV-I 9 W/m 28,3 km/h (4 Bft)
30.01.2013 08:58 13,3 C 11,8 C 89 % 0 lf 1003,3 hPa 0,0 l/m 0 min 0,0 UV-I 7 W/m 18,0 km/h (3 Bft)
30.01.2013 09:00 13,3 C 11,8 C 89 % 1 lf 1003,2 hPa 0,0 l/m 0 min 0,0 UV-I 9 W/m 36,0 km/h (5 Bft)
30.01.2013 09:02 13,3 C 11,8 C 90 % 0 lf 1003,2 hPa 0,0 l/m 0 min 0,0 UV-I 14 W/m 18,0 km/h (3 Bft)
30.01.2013 09:04 13,3 C 11,8 C 90 % 1 lf 1003,2 hPa 0,0 l/m 0 min 0,0 UV-I 12 W/m 23,2 km/h (4 Bft)
30.01.2013 09:06 13,3 C 11,8 C 90 % 1 lf 1003,2 hPa 0,0 l/m 0 min 0,0 UV-I 12 W/m 41,2 km/h (6 Bft)
30.01.2013 09:08 13,3 C 11,8 C 90 % 1 lf 1003,1 hPa 0,0 l/m 0 min 0,0 UV-I 11 W/m 30,9 km/h (5 Bft)
30.01.2013 09:10 13,3 C 11,8 C 90 % 0 lf 1003,1 hPa 0,0 l/m 0 min 0,0 UV-I 14 W/m 25,7 km/h (4 Bft)
30.01.2013 09:12 13,3 C 11,8 C 90 % 1 lf 1003,1 hPa 0,0 l/m 0 min 0,0 UV-I 19 W/m 30,9 km/h (5 Bft)
30.01.2013 09:14 13,2 C 11,8 C 90 % 0 lf 1003,4 hPa 0,0 l/m 0 min 0,0 UV-I 18 W/m 23,2 km/h (4 Bft)
30.01.2013 09:16 13,2 C 11,8 C 91 % 0 lf 1003,3 hPa 0,0 l/m 0 min 0,0 UV-I 19 W/m 36,0 km/h (5 Bft)
30.01.2013 09:18 13,2 C 11,8 C 91 % 0 lf 1003,0 hPa 0,0 l/m 0 min 0,0 UV-I 18 W/m 20,6 km/h (4 Bft)
30.01.2013 09:20 13,2 C 11,8 C 91 % 0 lf 1003,2 hPa 0,0 l/m 0 min 0,0 UV-I 16 W/m 48,9 km/h (6 Bft)
30.01.2013 09:22 13,2 C 11,8 C 91 % 0 lf 1003,2 hPa 0,0 l/m 0 min 0,0 UV-I 21 W/m 38,6 km/h (5 Bft)
30.01.2013 09:24 13,2 C 11,8 C 91 % 0 lf 1003,2 hPa 0,0 l/m 0 min 0,0 UV-I 19 W/m 25,7 km/h (4 Bft)
30.01.2013 09:26 13,3 C 11,8 C 91 % 0 lf 1003,0 hPa 0,0 l/m 0 min 0,0 UV-I 19 W/m 20,6 km/h (4 Bft)
30.01.2013 09:28 13,3 C 11,8 C 91 % 0 lf 1002,8 hPa 0,0 l/m 0 min 0,0 UV-I 18 W/m 30,9 km/h (5 Bft)
30.01.2013 09:30 13,3 C 11,8 C 91 % 0 lf 1002,8 hPa 0,0 l/m 0 min 0,0 UV-I 18 W/m 28,3 km/h (4 Bft)
30.01.2013 09:32 13,3 C 11,8 C 90 % 1 lf 1002,9 hPa 0,0 l/m 0 min 0,0 UV-I 19 W/m 30,9 km/h (5 Bft)
30.01.2013 09:34 13,3 C 11,8 C 91 % 3 lf 1002,8 hPa 0,0 l/m 0 min 0,0 UV-I 32 W/m 30,9 km/h (5 Bft)
30.01.2013 09:36 13,3 C 11,8 C 91 % 3 lf 1002,9 hPa 0,0 l/m 0 min 0,0 UV-I 40 W/m 36,0 km/h (5 Bft)
30.01.2013 09:38 13,3 C 11,8 C 91 % 1 lf 1002,9 hPa 0,0 l/m 0 min 0,0 UV-I 40 W/m 36,0 km/h (5 Bft)
30.01.2013 09:40 13,4 C 11,8 C 91 % 3 lf 1002,7 hPa 0,0 l/m 0 min 0,0 UV-I 51 W/m 43,8 km/h (6 Bft)
30.01.2013 09:42 13,4 C 11,8 C 91 % 0 lf 1002,9 hPa 0,0 l/m 0 min 0,0 UV-I 51 W/m 28,3 km/h (4 Bft)
30.01.2013 09:44 13,4 C 11,8 C 91 % 1 lf 1002,7 hPa 0,0 l/m 0 min 0,0 UV-I 49 W/m 33,5 km/h (5 Bft)
30.01.2013 09:46 13,4 C 11,8 C 91 % 0 lf 1002,9 hPa 0,0 l/m 0 min 0,0 UV-I 42 W/m 25,7 km/h (4 Bft)
30.01.2013 09:48 13,4 C 11,8 C 91 % 1 lf 1002,8 hPa 0,0 l/m 0 min 0,0 UV-I 44 W/m 28,3 km/h (4 Bft)
30.01.2013 09:50 13,4 C 11,8 C 91 % 2 lf 1002,9 hPa 0,0 l/m 0 min 0,0 UV-I 47 W/m 28,3 km/h (4 Bft)
30.01.2013 09:52 13,4 C 11,8 C 91 % 0 lf 1002,8 hPa 0,0 l/m 0 min 0,0 UV-I 40 W/m 33,5 km/h (5 Bft)
30.01.2013 09:54 13,4 C 11,8 C 91 % 4 lf 1003,1 hPa 0,0 l/m 0 min 0,0 UV-I 39 W/m 36,0 km/h (5 Bft)
30.01.2013 09:56 13,3 C 11,8 C 91 % 10 lf 1002,9 hPa 0,0 l/m 0 min 0,0 UV-I 46 W/m 38,6 km/h (5 Bft)
30.01.2013 09:58 13,3 C 11,8 C 92 % 15 lf 1003,3 hPa 0,0 l/m 0 min 0,0 UV-I 53 W/m 43,8 km/h (6 Bft)
30.01.2013 10:00 13,3 C 11,2 C 92 % 15 lf 1003,3 hPa 0,0 l/m 0 min 0,0 UV-I 46 W/m 38,6 km/h (5 Bft)
30.01.2013 10:02 13,3 C 11,2 C 93 % 15 lf 1003,0 hPa 0,0 l/m 0 min 0,0 UV-I 54 W/m 23,2 km/h (4 Bft)
30.01.2013 10:04 13,2 C 11,2 C 93 % 15 lf 1002,8 hPa 0,0 l/m 0 min 0,0 UV-I 60 W/m 20,6 km/h (4 Bft)
30.01.2013 10:06 13,2 C 11,2 C 93 % 15 lf 1003,3 hPa 0,0 l/m 0 min 0,0 UV-I 60 W/m 46,3 km/h (6 Bft)
30.01.2013 10:08 13,2 C 11,2 C 93 % 15 lf 1003,3 hPa 0,0 l/m 0 min 0,0 UV-I 62 W/m 25,7 km/h (4 Bft)
30.01.2013 10:10 13,1 C 11,2 C 93 % 15 lf 1003,1 hPa 0,0 l/m 0 min 0,0 UV-I 53 W/m 38,6 km/h (5 Bft)
30.01.2013 10:12 13,1 C 11,2 C 94 % 15 lf 1003,3 hPa 0,0 l/m 0 min 0,0 UV-I 47 W/m 38,6 km/h (5 Bft)
30.01.2013 10:14 13,1 C 11,2 C 94 % 15 lf 1003,2 hPa 0,0 l/m 0 min 0,0 UV-I 46 W/m 41,2 km/h (6 Bft)
30.01.2013 10:16 13,1 C 11,2 C 94 % 15 lf 1003,2 hPa 0,0 l/m 0 min 0,0 UV-I 42 W/m 30,9 km/h (5 Bft)
30.01.2013 10:18 13,0 C 11,2 C 94 % 15 lf 1002,8 hPa 0,0 l/m 0 min 0,0 UV-I 47 W/m 20,6 km/h (4 Bft)
30.01.2013 10:20 13,0 C 11,2 C 94 % 15 lf 1003,0 hPa 0,0 l/m 0 min 0,0 UV-I 44 W/m 36,0 km/h (5 Bft)
30.01.2013 10:22 12,9 C 11,2 C 94 % 15 lf 1003,0 hPa 0,0 l/m 0 min 0,0 UV-I 30 W/m 23,2 km/h (4 Bft)
30.01.2013 10:24 12,9 C 10,7 C 95 % 15 lf 1002,8 hPa 0,0 l/m 0 min 0,0 UV-I 28 W/m 54,1 km/h (7 Bft)
30.01.2013 10:26 12,9 C 10,7 C 95 % 15 lf 1003,0 hPa 0,0 l/m 0 min 0,0 UV-I 26 W/m 15,4 km/h (3 Bft)
30.01.2013 10:28 12,9 C 10,7 C 95 % 15 lf 1003,2 hPa 0,2 l/m 0 min 0,0 UV-I 28 W/m 20,6 km/h (4 Bft)
30.01.2013 10:30 12,9 C 10,7 C 95 % 15 lf 1003,1 hPa 0,0 l/m 0 min 0,0 UV-I 23 W/m 28,3 km/h (4 Bft)
30.01.2013 10:32 12,8 C 10,7 C 95 % 15 lf 1003,3 hPa 0,0 l/m 0 min 0,0 UV-I 19 W/m 33,5 km/h (5 Bft)
30.01.2013 10:34 12,8 C 10,7 C 95 % 15 lf 1003,1 hPa 0,0 l/m 0 min 0,0 UV-I 28 W/m 30,9 km/h (5 Bft)
30.01.2013 10:36 12,8 C 10,7 C 95 % 15 lf 1003,2 hPa 0,0 l/m 0 min 0,0 UV-I 26 W/m 18,0 km/h (3 Bft)
30.01.2013 10:38 12,8 C 10,7 C 95 % 15 lf 1003,3 hPa 0,0 l/m 0 min 0,0 UV-I 26 W/m 23,2 km/h (4 Bft)
30.01.2013 10:40 12,8 C 10,7 C 95 % 15 lf 1003,2 hPa 0,0 l/m 0 min 0,0 UV-I 18 W/m 30,9 km/h (5 Bft)
30.01.2013 10:42 12,8 C 10,7 C 96 % 13 lf 1003,3 hPa 0,2 l/m 0 min 0,0 UV-I 14 W/m 15,4 km/h (3 Bft)
30.01.2013 10:44 12,7 C 10,7 C 96 % 12 lf 1003,3 hPa 0,2 l/m 0 min 0,0 UV-I 9 W/m 36,0 km/h (5 Bft)
30.01.2013 10:46 12,7 C 10,7 C 96 % 13 lf 1003,4 hPa 0,0 l/m 0 min 0,0 UV-I 12 W/m 38,6 km/h (5 Bft)
30.01.2013 10:48 12,7 C 10,7 C 96 % 12 lf 1003,4 hPa 0,2 l/m 0 min 0,0 UV-I 11 W/m 30,9 km/h (5 Bft)
30.01.2013 10:50 12,6 C 10,7 C 96 % 12 lf 1003,2 hPa 0,2 l/m 0 min 0,0 UV-I 11 W/m 23,2 km/h (4 Bft)
30.01.2013 10:52 12,6 C 10,7 C 96 % 12 lf 1003,3 hPa 0,0 l/m 0 min 0,0 UV-I 12 W/m 23,2 km/h (4 Bft)
30.01.2013 10:54 12,6 C 10,7 C 96 % 13 lf 1003,0 hPa 0,0 l/m 0 min 0,0 UV-I 18 W/m 28,3 km/h (4 Bft)
30.01.2013 10:56 12,6 C 10,7 C 96 % 13 lf 1003,1 hPa 0,0 l/m 0 min 0,0 UV-I 19 W/m 30,9 km/h (5 Bft)
30.01.2013 10:58 12,6 C 10,7 C 96 % 13 lf 1002,9 hPa 0,0 l/m 0 min 0,0 UV-I 28 W/m 25,7 km/h (4 Bft)
30.01.2013 11:00 12,6 C 10,7 C 97 % 14 lf 1003,4 hPa 0,0 l/m 0 min 0,0 UV-I 46 W/m 38,6 km/h (5 Bft)
30.01.2013 11:02 12,6 C 10,7 C 97 % 14 lf 1003,1 hPa 0,0 l/m 0 min 0,0 UV-I 44 W/m 30,9 km/h (5 Bft)
30.01.2013 11:04 12,6 C 10,7 C 97 % 14 lf 1002,9 hPa 0,2 l/m 0 min 0,0 UV-I 42 W/m 41,2 km/h (6 Bft)
30.01.2013 11:06 12,6 C 10,7 C 97 % 14 lf 1003,0 hPa 0,0 l/m 0 min 0,0 UV-I 42 W/m 25,7 km/h (4 Bft)
30.01.2013 11:08 12,6 C 10,7 C 97 % 14 lf 1003,3 hPa 0,0 l/m 0 min 0,0 UV-I 47 W/m 23,2 km/h (4 Bft)
30.01.2013 11:10 12,6 C 10,7 C 97 % 14 lf 1003,3 hPa 0,0 l/m 0 min 0,0 UV-I 58 W/m 28,3 km/h (4 Bft)
30.01.2013 11:12 12,6 C 10,7 C 97 % 14 lf 1003,6 hPa 0,0 l/m 0 min 0,0 UV-I 60 W/m 41,2 km/h (6 Bft)
30.01.2013 11:14 12,6 C 10,7 C 97 % 14 lf 1003,3 hPa 0,0 l/m 0 min 0,0 UV-I 40 W/m 30,9 km/h (5 Bft)
30.01.2013 11:16 12,6 C 10,7 C 97 % 14 lf 1003,5 hPa 0,0 l/m 0 min 0,0 UV-I 46 W/m 30,9 km/h (5 Bft)
30.01.2013 11:18 12,6 C 10,7 C 97 % 14 lf 1003,7 hPa 0,0 l/m 0 min 0,0 UV-I 54 W/m 46,3 km/h (6 Bft)
30.01.2013 11:20 12,6 C 10,7 C 97 % 14 lf 1003,4 hPa 0,0 l/m 0 min 0,0 UV-I 63 W/m 20,6 km/h (4 Bft)
30.01.2013 11:22 12,6 C 11,2 C 97 % 14 lf 1003,6 hPa 0,0 l/m 0 min 0,0 UV-I 54 W/m 41,2 km/h (6 Bft)
30.01.2013 11:24 12,7 C 10,7 C 96 % 14 lf 1003,6 hPa 0,0 l/m 0 min 0,0 UV-I 42 W/m 20,6 km/h (4 Bft)
30.01.2013 11:26 12,7 C 10,7 C 96 % 14 lf 1003,6 hPa 0,0 l/m 0 min 0,0 UV-I 33 W/m 23,2 km/h (4 Bft)
30.01.2013 11:28 12,7 C 10,7 C 96 % 14 lf 1003,6 hPa 0,0 l/m 0 min 0,0 UV-I 28 W/m 28,3 km/h (4 Bft)
30.01.2013 11:30 12,7 C 10,7 C 96 % 14 lf 1003,6 hPa 0,0 l/m 0 min 0,0 UV-I 32 W/m 33,5 km/h (5 Bft)
30.01.2013 11:32 12,7 C 10,7 C 96 % 14 lf 1003,6 hPa 0,2 l/m 0 min 0,0 UV-I 39 W/m 38,6 km/h (5 Bft)
30.01.2013 11:34 12,7 C 10,7 C 96 % 14 lf 1003,6 hPa 0,0 l/m 0 min 0,0 UV-I 39 W/m 30,9 km/h (5 Bft)
30.01.2013 11:36 12,6 C 10,7 C 97 % 14 lf 1003,6 hPa 0,0 l/m 0 min 0,0 UV-I 44 W/m 20,6 km/h (4 Bft)
30.01.2013 11:38 12,6 C 10,7 C 97 % 14 lf 1003,6 hPa 0,0 l/m 0 min 0,0 UV-I 42 W/m 23,2 km/h (4 Bft)
30.01.2013 11:40 12,6 C 10,7 C 97 % 14 lf 1003,5 hPa 0,0 l/m 0 min 0,0 UV-I 37 W/m 15,4 km/h (3 Bft)
30.01.2013 11:42 12,6 C 10,7 C 97 % 15 lf 1003,6 hPa 0,0 l/m 0 min 0,0 UV-I 32 W/m 25,7 km/h (4 Bft)
30.01.2013 11:44 12,6 C 10,7 C 97 % 14 lf 1003,6 hPa 0,0 l/m 0 min 0,0 UV-I 40 W/m 30,9 km/h (5 Bft)
30.01.2013 11:46 12,6 C 10,7 C 97 % 14 lf 1003,8 hPa 0,2 l/m 0 min 0,0 UV-I 30 W/m 25,7 km/h (4 Bft)
30.01.2013 11:48 12,6 C 10,7 C 97 % 13 lf 1003,6 hPa 0,0 l/m 0 min 0,0 UV-I 37 W/m 23,2 km/h (4 Bft)
30.01.2013 11:50 12,6 C 10,7 C 97 % 13 lf 1003,7 hPa 0,0 l/m 0 min 0,0 UV-I 33 W/m 28,3 km/h (4 Bft)
30.01.2013 11:52 12,6 C 10,7 C 97 % 11 lf 1003,7 hPa 0,2 l/m 0 min 0,0 UV-I 37 W/m 25,7 km/h (4 Bft)
30.01.2013 11:54 12,6 C 10,7 C 97 % 12 lf 1003,8 hPa 0,2 l/m 0 min 0,0 UV-I 19 W/m 18,0 km/h (3 Bft)
30.01.2013 11:56 12,6 C 10,7 C 97 % 13 lf 1004,2 hPa 0,2 l/m 0 min 0,0 UV-I 12 W/m 46,3 km/h (6 Bft)
30.01.2013 11:58 12,5 C 10,1 C 96 % 14 lf 1004,3 hPa 0,6 l/m 0 min 0,0 UV-I 25 W/m 28,3 km/h (4 Bft)
30.01.2013 12:00 12,3 C 10,1 C 96 % 14 lf 1004,2 hPa 0,2 l/m 0 min 0,0 UV-I 46 W/m 12,9 km/h (3 Bft)
30.01.2013 12:02 12,2 C 10,1 C 96 % 14 lf 1004,2 hPa 0,0 l/m 0 min 0,0 UV-I 33 W/m 12,9 km/h (3 Bft)
30.01.2013 12:04 12,0 C 9,6 C 96 % 14 lf 1004,2 hPa 0,0 l/m 0 min 0,0 UV-I 32 W/m 15,4 km/h (3 Bft)
30.01.2013 12:06 11,9 C 9,6 C 96 % 14 lf 1004,3 hPa 0,0 l/m 0 min 0,0 UV-I 44 W/m 10,3 km/h (2 Bft)
30.01.2013 12:08 11,8 C 9,6 C 96 % 14 lf 1004,3 hPa 0,0 l/m 0 min 0,0 UV-I 54 W/m 12,9 km/h (3 Bft)
30.01.2013 12:10 11,7 C 9,6 C 96 % 14 lf 1004,2 hPa 0,0 l/m 0 min 0,0 UV-I 47 W/m 20,6 km/h (4 Bft)
30.01.2013 12:12 11,6 C 9,6 C 96 % 14 lf 1004,2 hPa 0,0 l/m 0 min 0,0 UV-I 56 W/m 18,0 km/h (3 Bft)
30.01.2013 12:14 11,5 C 9,6 C 96 % 14 lf 1003,9 hPa 0,0 l/m 0 min 0,0 UV-I 65 W/m 18,0 km/h (3 Bft)
30.01.2013 12:16 11,4 C 9,6 C 96 % 14 lf 1004,0 hPa 0,0 l/m 0 min 0,0 UV-I 65 W/m 10,3 km/h (2 Bft)
30.01.2013 12:18 11,4 C 9,6 C 96 % 14 lf 1004,0 hPa 0,0 l/m 0 min 0,0 UV-I 44 W/m 18,0 km/h (3 Bft)
30.01.2013 12:20 11,3 C 9,6 C 96 % 14 lf 1004,1 hPa 0,0 l/m 0 min 0,0 UV-I 28 W/m 15,4 km/h (3 Bft)
30.01.2013 12:22 11,3 C 9,6 C 96 % 14 lf 1004,2 hPa 0,2 l/m 0 min 0,0 UV-I 32 W/m 15,4 km/h (3 Bft)
30.01.2013 12:24 11,3 C 9,6 C 97 % 14 lf 1004,4 hPa 0,0 l/m 0 min 0,0 UV-I 25 W/m 10,3 km/h (2 Bft)
30.01.2013 12:26 11,2 C 9,6 C 97 % 14 lf 1004,2 hPa 0,0 l/m 0 min 0,0 UV-I 16 W/m 7,7 km/h (2 Bft)
30.01.2013 12:28 11,2 C 9,6 C 97 % 14 lf 1004,5 hPa 0,0 l/m 0 min 0,0 UV-I 23 W/m 20,6 km/h (4 Bft)
30.01.2013 12:30 11,2 C 9,6 C 97 % 14 lf 1004,5 hPa 0,0 l/m 0 min 0,0 UV-I 33 W/m 20,6 km/h (4 Bft)
30.01.2013 12:32 11,1 C 9,6 C 97 % 14 lf 1004,5 hPa 0,0 l/m 0 min 0,0 UV-I 33 W/m 12,9 km/h (3 Bft)
30.01.2013 12:34 11,1 C 9,6 C 97 % 14 lf 1004,6 hPa 0,0 l/m 0 min 0,0 UV-I 33 W/m 18,0 km/h (3 Bft)
30.01.2013 12:36 11,1 C 9,6 C 97 % 14 lf 1004,6 hPa 0,0 l/m 0 min 0,0 UV-I 53 W/m 10,3 km/h (2 Bft)
30.01.2013 12:38 11,1 C 9,6 C 97 % 14 lf 1004,6 hPa 0,0 l/m 0 min 0,0 UV-I 77 W/m 7,7 km/h (2 Bft)
30.01.2013 12:40 11,1 C 9,6 C 97 % 14 lf 1004,6 hPa 0,0 l/m 0 min 0,0 UV-I 98 W/m 10,3 km/h (2 Bft)
30.01.2013 12:42 11,1 C 10,1 C 97 % 15 lf 1004,6 hPa 0,0 l/m 0 min 0,0 UV-I 86 W/m 18,0 km/h (3 Bft)
30.01.2013 12:44 11,1 C 10,1 C 98 % 15 lf 1004,6 hPa 0,0 l/m 0 min 0,0 UV-I 70 W/m 18,0 km/h (3 Bft)
30.01.2013 12:46 11,2 C 10,1 C 98 % 14 lf 1004,6 hPa 0,0 l/m 0 min 0,0 UV-I 72 W/m 20,6 km/h (4 Bft)
30.01.2013 12:48 11,2 C 10,1 C 98 % 14 lf 1004,5 hPa 0,2 l/m 0 min 0,0 UV-I 93 W/m 15,4 km/h (3 Bft)
30.01.2013 12:50 11,2 C 10,1 C 98 % 14 lf 1004,4 hPa 0,0 l/m 0 min 0,0 UV-I 100 W/m 20,6 km/h (4 Bft)
30.01.2013 12:52 11,2 C 10,1 C 98 % 14 lf 1004,6 hPa 0,0 l/m 0 min 0,0 UV-I 100 W/m 15,4 km/h (3 Bft)
30.01.2013 12:54 11,2 C 10,1 C 98 % 14 lf 1004,6 hPa 0,0 l/m 0 min 0,0 UV-I 97 W/m 12,9 km/h (3 Bft)
30.01.2013 12:56 11,3 C 10,1 C 98 % 14 lf 1004,6 hPa 0,0 l/m 0 min 0,0 UV-I 84 W/m 12,9 km/h (3 Bft)
30.01.2013 12:58 11,3 C 10,1 C 98 % 14 lf 1004,6 hPa 0,0 l/m 0 min 0,0 UV-I 86 W/m 20,6 km/h (4 Bft)
30.01.2013 13:00 11,3 C 10,1 C 98 % 14 lf 1004,6 hPa 0,0 l/m 0 min 0,0 UV-I 97 W/m 12,9 km/h (3 Bft)
30.01.2013 13:02 11,3 C 10,1 C 98 % 14 lf 1004,5 hPa 0,0 l/m 0 min 0,0 UV-I 90 W/m 18,0 km/h (3 Bft)
30.01.2013 13:04 11,3 C 10,1 C 98 % 14 lf 1004,7 hPa 0,0 l/m 0 min 0,0 UV-I 72 W/m 15,4 km/h (3 Bft)
30.01.2013 13:06 11,3 C 10,1 C 98 % 14 lf 1004,8 hPa 0,0 l/m 0 min 0,0 UV-I 65 W/m 20,6 km/h (4 Bft)
30.01.2013 13:08 11,3 C 10,1 C 98 % 14 lf 1004,9 hPa 0,0 l/m 0 min 0,0 UV-I 60 W/m 15,4 km/h (3 Bft)
30.01.2013 13:10 11,3 C 10,1 C 98 % 14 lf 1004,8 hPa 0,0 l/m 0 min 0,0 UV-I 47 W/m 10,3 km/h (2 Bft)
30.01.2013 13:12 11,3 C 10,1 C 98 % 14 lf 1004,9 hPa 0,0 l/m 0 min 0,0 UV-I 46 W/m 18,0 km/h (3 Bft)
30.01.2013 13:14 11,3 C 10,1 C 98 % 14 lf 1004,7 hPa 0,0 l/m 0 min 0,0 UV-I 56 W/m 5,1 km/h (1 Bft)
30.01.2013 13:16 11,3 C 10,1 C 98 % 14 lf 1004,6 hPa 0,0 l/m 0 min 0,0 UV-I 62 W/m 15,4 km/h (3 Bft)
30.01.2013 13:18 11,3 C 10,1 C 98 % 14 lf 1004,5 hPa 0,0 l/m 0 min 0,0 UV-I 70 W/m 18,0 km/h (3 Bft)
30.01.2013 13:20 11,3 C 10,1 C 98 % 14 lf 1004,4 hPa 0,0 l/m 0 min 0,0 UV-I 70 W/m 10,3 km/h (2 Bft)
30.01.2013 13:22 11,3 C 10,1 C 98 % 14 lf 1004,3 hPa 0,0 l/m 0 min 0,0 UV-I 97 W/m 5,1 km/h (1 Bft)
30.01.2013 13:24 11,3 C 10,1 C 98 % 14 lf 1004,4 hPa 0,0 l/m 0 min 0,0 UV-I 98 W/m 12,9 km/h (3 Bft)
30.01.2013 13:26 11,3 C 10,1 C 98 % 14 lf 1004,5 hPa 0,0 l/m 0 min 0,0 UV-I 107 W/m 20,6 km/h (4 Bft)
30.01.2013 13:28 11,3 C 10,1 C 98 % 13 lf 1004,6 hPa 0,0 l/m 0 min 0,0 UV-I 105 W/m 7,7 km/h (2 Bft)
30.01.2013 13:30 11,3 C 10,1 C 98 % 13 lf 1004,8 hPa 0,0 l/m 0 min 0,0 UV-I 91 W/m 18,0 km/h (3 Bft)
30.01.2013 13:32 11,3 C 10,1 C 98 % 12 lf 1004,7 hPa 0,0 l/m 0 min 0,0 UV-I 109 W/m 7,7 km/h (2 Bft)
30.01.2013 13:34 11,3 C 10,1 C 98 % 12 lf 1004,8 hPa 0,0 l/m 0 min 0,0 UV-I 83 W/m 18,0 km/h (3 Bft)
30.01.2013 13:36 11,3 C 10,1 C 98 % 11 lf 1004,9 hPa 0,0 l/m 0 min 0,0 UV-I 102 W/m 18,0 km/h (3 Bft)
30.01.2013 13:38 11,3 C 10,1 C 97 % 10 lf 1005,0 hPa 0,0 l/m 0 min 0,0 UV-I 113 W/m 18,0 km/h (3 Bft)
30.01.2013 13:40 11,3 C 10,1 C 97 % 8 lf 1005,0 hPa 0,0 l/m 0 min 0,0 UV-I 130 W/m 12,9 km/h (3 Bft)
30.01.2013 13:42 11,2 C 9,6 C 97 % 5 lf 1005,0 hPa 0,0 l/m 0 min 0,0 UV-I 167 W/m 18,0 km/h (3 Bft)
30.01.2013 13:44 11,3 C 10,1 C 97 % 4 lf 1005,2 hPa 0,0 l/m 0 min 0,0 UV-I 139 W/m 18,0 km/h (3 Bft)
30.01.2013 13:46 11,3 C 9,6 C 97 % 3 lf 1005,1 hPa 0,0 l/m 0 min 0,0 UV-I 86 W/m 18,0 km/h (3 Bft)
30.01.2013 13:48 11,3 C 9,6 C 96 % 3 lf 1005,2 hPa 0,0 l/m 0 min 0,0 UV-I 69 W/m 10,3 km/h (2 Bft)
30.01.2013 13:50 11,3 C 9,6 C 96 % 3 lf 1005,1 hPa 0,0 l/m 0 min 0,0 UV-I 67 W/m 23,2 km/h (4 Bft)
30.01.2013 13:52 11,3 C 9,6 C 96 % 3 lf 1005,2 hPa 0,0 l/m 0 min 0,0 UV-I 58 W/m 23,2 km/h (4 Bft)
30.01.2013 13:54 11,3 C 9,6 C 96 % 3 lf 1005,1 hPa 0,0 l/m 0 min 0,0 UV-I 69 W/m 18,0 km/h (3 Bft)
30.01.2013 13:56 11,3 C 9,6 C 95 % 3 lf 1005,2 hPa 0,0 l/m 0 min 0,0 UV-I 81 W/m 20,6 km/h (4 Bft)
30.01.2013 13:58 11,3 C 9,6 C 95 % 3 lf 1005,1 hPa 0,0 l/m 0 min 0,0 UV-I 98 W/m 20,6 km/h (4 Bft)
30.01.2013 14:00 11,3 C 9,6 C 95 % 3 lf 1005,1 hPa 0,0 l/m 0 min 0,0 UV-I 97 W/m 20,6 km/h (4 Bft)
30.01.2013 14:02 11,3 C 9,6 C 94 % 3 lf 1005,0 hPa 0,0 l/m 0 min 0,0 UV-I 93 W/m 20,6 km/h (4 Bft)
30.01.2013 14:04 11,3 C 9,6 C 94 % 3 lf 1005,1 hPa 0,0 l/m 0 min 0,0 UV-I 104 W/m 18,0 km/h (3 Bft)
30.01.2013 14:06 11,3 C 9,6 C 94 % 2 lf 1005,1 hPa 0,0 l/m 0 min 0,0 UV-I 79 W/m 15,4 km/h (3 Bft)
30.01.2013 14:08 11,3 C 9,6 C 94 % 2 lf 1005,1 hPa 0,0 l/m 0 min 0,0 UV-I 63 W/m 25,7 km/h (4 Bft)
30.01.2013 14:10 11,3 C 9,6 C 94 % 2 lf 1005,1 hPa 0,0 l/m 0 min 0,0 UV-I 91 W/m 18,0 km/h (3 Bft)
30.01.2013 14:12 11,3 C 9,6 C 93 % 2 lf 1005,1 hPa 0,0 l/m 0 min 0,0 UV-I 91 W/m 15,4 km/h (3 Bft)
30.01.2013 14:14 11,3 C 9,6 C 93 % 2 lf 1005,1 hPa 0,0 l/m 0 min 0,0 UV-I 97 W/m 20,6 km/h (4 Bft)
30.01.2013 14:16 11,3 C 9,6 C 93 % 2 lf 1005,1 hPa 0,0 l/m 0 min 0,0 UV-I 93 W/m 18,0 km/h (3 Bft)
30.01.2013 14:18 11,3 C 9,6 C 93 % 2 lf 1005,2 hPa 0,0 l/m 0 min 0,0 UV-I 81 W/m 20,6 km/h (4 Bft)
30.01.2013 14:20 11,3 C 9,6 C 93 % 2 lf 1005,2 hPa 0,0 l/m 0 min 0,0 UV-I 88 W/m 18,0 km/h (3 Bft)
30.01.2013 14:22 11,3 C 9,6 C 92 % 2 lf 1005,2 hPa 0,0 l/m 0 min 0,0 UV-I 74 W/m 20,6 km/h (4 Bft)
30.01.2013 14:24 11,3 C 9,0 C 92 % 1 lf 1005,3 hPa 0,0 l/m 0 min 0,0 UV-I 46 W/m 15,4 km/h (3 Bft)
30.01.2013 14:26 11,3 C 9,0 C 92 % 2 lf 1005,3 hPa 0,0 l/m 0 min 0,0 UV-I 53 W/m 12,9 km/h (3 Bft)
30.01.2013 14:28 11,3 C 9,0 C 92 % 1 lf 1005,2 hPa 0,0 l/m 0 min 0,0 UV-I 58 W/m 18,0 km/h (3 Bft)
30.01.2013 14:30 11,3 C 9,0 C 92 % 1 lf 1005,4 hPa 0,0 l/m 0 min 0,0 UV-I 46 W/m 12,9 km/h (3 Bft)
30.01.2013 14:32 11,3 C 9,0 C 92 % 1 lf 1005,4 hPa 0,0 l/m 0 min 0,0 UV-I 60 W/m 10,3 km/h (2 Bft)
30.01.2013 14:34 11,3 C 9,0 C 92 % 1 lf 1005,4 hPa 0,0 l/m 0 min 0,0 UV-I 35 W/m 12,9 km/h (3 Bft)
30.01.2013 14:36 11,3 C 9,0 C 92 % 0 lf 1005,4 hPa 0,0 l/m 0 min 0,0 UV-I 32 W/m 15,4 km/h (3 Bft)
30.01.2013 14:38 11,3 C 9,0 C 92 % 0 lf 1005,4 hPa 0,0 l/m 0 min 0,0 UV-I 40 W/m 10,3 km/h (2 Bft)
30.01.2013 14:40 11,3 C 9,0 C 92 % 0 lf 1005,4 hPa 0,0 l/m 0 min 0,0 UV-I 70 W/m 12,9 km/h (3 Bft)
30.01.2013 14:42 11,3 C 9,0 C 92 % 0 lf 1005,3 hPa 0,0 l/m 0 min 0,0 UV-I 84 W/m 20,6 km/h (4 Bft)
30.01.2013 14:44 11,3 C 9,0 C 92 % 0 lf 1005,5 hPa 0,0 l/m 0 min 0,0 UV-I 81 W/m 28,3 km/h (4 Bft)
30.01.2013 14:46 11,3 C 9,6 C 92 % 0 lf 1005,4 hPa 0,0 l/m 0 min 0,0 UV-I 158 W/m 12,9 km/h (3 Bft)
30.01.2013 14:48 11,3 C 9,6 C 92 % 0 lf 1005,5 hPa 0,0 l/m 2 min 0,0 UV-I 162 W/m 28,3 km/h (4 Bft)
30.01.2013 14:50 11,4 C 9,6 C 92 % 0 lf 1005,4 hPa 0,0 l/m 0 min 0,0 UV-I 134 W/m 10,3 km/h (2 Bft)
30.01.2013 14:52 11,4 C 9,6 C 92 % 0 lf 1005,4 hPa 0,0 l/m 2 min 0,0 UV-I 155 W/m 20,6 km/h (4 Bft)
30.01.2013 14:54 11,5 C 9,6 C 91 % 0 lf 1005,5 hPa 0,0 l/m 2 min 0,0 UV-I 353 W/m 20,6 km/h (4 Bft)
30.01.2013 14:56 11,6 C 9,6 C 91 % 0 lf 1005,5 hPa 0,0 l/m 0 min 0,0 UV-I 127 W/m 20,6 km/h (4 Bft)
30.01.2013 14:58 11,6 C 9,6 C 90 % 0 lf 1005,5 hPa 0,0 l/m 2 min 0,0 UV-I 156 W/m 23,2 km/h (4 Bft)
30.01.2013 15:00 11,7 C 10,1 C 90 % 0 lf 1005,6 hPa 0,0 l/m 2 min 0,0 UV-I 197 W/m 25,7 km/h (4 Bft)
30.01.2013 15:02 11,7 C 10,1 C 90 % 0 lf 1005,6 hPa 0,0 l/m 0 min 0,0 UV-I 90 W/m 20,6 km/h (4 Bft)
30.01.2013 15:04 11,7 C 10,1 C 89 % 0 lf 1005,7 hPa 0,0 l/m 0 min 0,0 UV-I 63 W/m 18,0 km/h (3 Bft)
30.01.2013 15:06 11,8 C 10,1 C 88 % 0 lf 1005,8 hPa 0,0 l/m 0 min 0,0 UV-I 79 W/m 18,0 km/h (3 Bft)
30.01.2013 15:08 11,8 C 10,1 C 88 % 0 lf 1005,9 hPa 0,0 l/m 0 min 0,0 UV-I 46 W/m 18,0 km/h (3 Bft)
30.01.2013 15:10 11,8 C 10,1 C 88 % 0 lf 1006,0 hPa 0,0 l/m 0 min 0,0 UV-I 70 W/m 20,6 km/h (4 Bft)
30.01.2013 15:12 11,8 C 10,1 C 88 % 0 lf 1006,0 hPa 0,0 l/m 0 min 0,0 UV-I 77 W/m 15,4 km/h (3 Bft)
30.01.2013 15:14 11,7 C 10,1 C 88 % 0 lf 1006,0 hPa 0,0 l/m 0 min 0,0 UV-I 62 W/m 25,7 km/h (4 Bft)
30.01.2013 15:16 11,7 C 9,6 C 87 % 0 lf 1005,9 hPa 0,0 l/m 0 min 0,0 UV-I 60 W/m 23,2 km/h (4 Bft)
30.01.2013 15:18 11,7 C 9,6 C 87 % 0 lf 1005,9 hPa 0,0 l/m 2 min 0,0 UV-I 220 W/m 10,3 km/h (2 Bft)
30.01.2013 15:20 11,7 C 9,6 C 87 % 0 lf 1005,8 hPa 0,0 l/m 2 min 0,0 UV-I 178 W/m 23,2 km/h (4 Bft)
30.01.2013 15:22 11,6 C 9,6 C 88 % 0 lf 1006,0 hPa 0,0 l/m 2 min 0,0 UV-I 220 W/m 18,0 km/h (3 Bft)
30.01.2013 15:24 11,6 C 9,6 C 87 % 0 lf 1006,0 hPa 0,0 l/m 2 min 0,0 UV-I 156 W/m 23,2 km/h (4 Bft)
30.01.2013 15:26 11,6 C 9,6 C 87 % 0 lf 1006,0 hPa 0,0 l/m 2 min 0,0 UV-I 160 W/m 20,6 km/h (4 Bft)
30.01.2013 15:28 11,6 C 10,1 C 86 % 0 lf 1006,1 hPa 0,0 l/m 2 min 0,0 UV-I 209 W/m 33,5 km/h (5 Bft)
30.01.2013 15:30 11,6 C 10,1 C 86 % 0 lf 1006,3 hPa 0,0 l/m 2 min 0,0 UV-I 209 W/m 23,2 km/h (4 Bft)
30.01.2013 15:32 11,6 C 10,1 C 85 % 0 lf 1006,1 hPa 0,0 l/m 2 min 0,0 UV-I 213 W/m 20,6 km/h (4 Bft)
30.01.2013 15:34 11,6 C 10,1 C 85 % 0 lf 1006,2 hPa 0,0 l/m 2 min 0,0 UV-I 211 W/m 18,0 km/h (3 Bft)
30.01.2013 15:36 11,6 C 10,1 C 85 % 0 lf 1006,3 hPa 0,0 l/m 2 min 0,0 UV-I 207 W/m 20,6 km/h (4 Bft)
30.01.2013 15:38 11,6 C 10,1 C 85 % 0 lf 1006,1 hPa 0,0 l/m 2 min 0,0 UV-I 142 W/m 30,9 km/h (5 Bft)
30.01.2013 15:40 11,7 C 10,7 C 85 % 0 lf 1006,2 hPa 0,0 l/m 2 min 0,0 UV-I 120 W/m 7,7 km/h (2 Bft)
30.01.2013 15:42 11,7 C 10,7 C 86 % 0 lf 1006,1 hPa 0,0 l/m 2 min 0,0 UV-I 141 W/m 20,6 km/h (4 Bft)
30.01.2013 15:44 11,7 C 10,7 C 86 % 0 lf 1006,1 hPa 0,0 l/m 2 min 0,0 UV-I 155 W/m 18,0 km/h (3 Bft)
30.01.2013 15:46 11,8 C 10,7 C 85 % 0 lf 1006,1 hPa 0,0 l/m 2 min 0,0 UV-I 142 W/m 23,2 km/h (4 Bft)
30.01.2013 15:48 11,8 C 10,7 C 84 % 0 lf 1006,1 hPa 0,0 l/m 2 min 0,0 UV-I 116 W/m 30,9 km/h (5 Bft)
30.01.2013 15:50 11,8 C 10,7 C 84 % 0 lf 1006,2 hPa 0,0 l/m 0 min 0,0 UV-I 74 W/m 18,0 km/h (3 Bft)
30.01.2013 15:52 11,8 C 10,7 C 84 % 0 lf 1006,2 hPa 0,0 l/m 0 min 0,0 UV-I 76 W/m 28,3 km/h (4 Bft)
30.01.2013 15:54 11,8 C 10,7 C 83 % 0 lf 1006,3 hPa 0,0 l/m 0 min 0,0 UV-I 65 W/m 18,0 km/h (3 Bft)
30.01.2013 15:56 11,8 C 10,1 C 83 % 0 lf 1006,2 hPa 0,0 l/m 0 min 0,0 UV-I 51 W/m 23,2 km/h (4 Bft)
30.01.2013 15:58 11,7 C 10,1 C 82 % 0 lf 1006,3 hPa 0,0 l/m 0 min 0,0 UV-I 46 W/m 30,9 km/h (5 Bft)
30.01.2013 16:00 11,7 C 10,1 C 82 % 0 lf 1006,3 hPa 0,0 l/m 0 min 0,0 UV-I 42 W/m 23,2 km/h (4 Bft)
30.01.2013 16:02 11,6 C 10,1 C 82 % 0 lf 1006,3 hPa 0,0 l/m 0 min 0,0 UV-I 30 W/m 25,7 km/h (4 Bft)
30.01.2013 16:04 11,6 C 9,6 C 82 % 0 lf 1006,3 hPa 0,0 l/m 0 min 0,0 UV-I 32 W/m 20,6 km/h (4 Bft)
30.01.2013 16:06 11,5 C 9,6 C 82 % 0 lf 1006,5 hPa 0,0 l/m 0 min 0,0 UV-I 21 W/m 25,7 km/h (4 Bft)
30.01.2013 16:08 11,4 C 10,1 C 81 % 0 lf 1006,5 hPa 0,0 l/m 0 min 0,0 UV-I 12 W/m 38,6 km/h (5 Bft)
30.01.2013 16:10 11,4 C 10,1 C 80 % 0 lf 1006,5 hPa 0,0 l/m 0 min 0,0 UV-I 12 W/m 25,7 km/h (4 Bft)
30.01.2013 16:12 11,4 C 9,6 C 81 % 0 lf 1006,4 hPa 0,0 l/m 0 min 0,0 UV-I 14 W/m 20,6 km/h (4 Bft)
30.01.2013 16:14 11,4 C 9,6 C 80 % 0 lf 1006,6 hPa 0,0 l/m 0 min 0,0 UV-I 19 W/m 38,6 km/h (5 Bft)
30.01.2013 16:16 11,3 C 9,6 C 80 % 0 lf 1006,5 hPa 0,0 l/m 0 min 0,0 UV-I 28 W/m 38,6 km/h (5 Bft)
30.01.2013 16:18 11,3 C 9,6 C 80 % 0 lf 1006,5 hPa 0,0 l/m 0 min 0,0 UV-I 40 W/m 12,9 km/h (3 Bft)
30.01.2013 16:20 11,3 C 9,6 C 81 % 0 lf 1006,6 hPa 0,0 l/m 0 min 0,0 UV-I 28 W/m 18,0 km/h (3 Bft)
30.01.2013 16:22 11,3 C 9,6 C 81 % 0 lf 1006,7 hPa 0,0 l/m 0 min 0,0 UV-I 23 W/m 25,7 km/h (4 Bft)
30.01.2013 16:24 11,2 C 9,6 C 81 % 0 lf 1006,7 hPa 0,0 l/m 0 min 0,0 UV-I 19 W/m 12,9 km/h (3 Bft)
30.01.2013 16:26 11,2 C 9,6 C 81 % 0 lf 1006,7 hPa 0,0 l/m 0 min 0,0 UV-I 16 W/m 7,7 km/h (2 Bft)
30.01.2013 16:28 11,2 C 9,6 C 81 % 0 lf 1006,7 hPa 0,0 l/m 0 min 0,0 UV-I 12 W/m 25,7 km/h (4 Bft)
30.01.2013 16:30 11,2 C 9,6 C 81 % 1 lf 1006,9 hPa 0,0 l/m 0 min 0,0 UV-I 23 W/m 15,4 km/h (3 Bft)
30.01.2013 16:32 11,2 C 9,6 C 82 % 0 lf 1006,8 hPa 0,0 l/m 0 min 0,0 UV-I 28 W/m 12,9 km/h (3 Bft)
30.01.2013 16:34 11,2 C 9,6 C 82 % 2 lf 1006,8 hPa 0,0 l/m 0 min 0,0 UV-I 18 W/m 10,3 km/h (2 Bft)
30.01.2013 16:36 11,1 C 9,0 C 83 % 15 lf 1007,0 hPa 0,0 l/m 0 min 0,0 UV-I 9 W/m 20,6 km/h (4 Bft)
30.01.2013 16:38 11,1 C 8,4 C 84 % 15 lf 1006,9 hPa 0,2 l/m 0 min 0,0 UV-I 11 W/m 18,0 km/h (3 Bft)
30.01.2013 16:40 11,0 C 7,9 C 85 % 15 lf 1007,0 hPa 0,2 l/m 0 min 0,0 UV-I 12 W/m 20,6 km/h (4 Bft)
30.01.2013 16:42 10,9 C 7,3 C 86 % 15 lf 1007,0 hPa 0,0 l/m 0 min 0,0 UV-I 14 W/m 23,2 km/h (4 Bft)
30.01.2013 16:44 10,8 C 7,3 C 86 % 15 lf 1007,0 hPa 0,0 l/m 0 min 0,0 UV-I 14 W/m 12,9 km/h (3 Bft)
30.01.2013 16:46 10,7 C 7,3 C 87 % 15 lf 1006,9 hPa 0,0 l/m 0 min 0,0 UV-I 16 W/m 18,0 km/h (3 Bft)
30.01.2013 16:48 10,6 C 7,3 C 87 % 15 lf 1007,1 hPa 0,0 l/m 0 min 0,0 UV-I 12 W/m 23,2 km/h (4 Bft)
30.01.2013 16:50 10,4 C 7,3 C 87 % 15 lf 1006,9 hPa 0,0 l/m 0 min 0,0 UV-I 14 W/m 12,9 km/h (3 Bft)
30.01.2013 16:52 10,4 C 7,3 C 88 % 15 lf 1007,0 hPa 0,0 l/m 0 min 0,0 UV-I 18 W/m 18,0 km/h (3 Bft)
30.01.2013 16:54 10,3 C 7,3 C 87 % 15 lf 1007,1 hPa 0,0 l/m 0 min 0,0 UV-I 18 W/m 15,4 km/h (3 Bft)
30.01.2013 16:56 10,3 C 7,3 C 88 % 15 lf 1007,1 hPa 0,0 l/m 0 min 0,0 UV-I 14 W/m 20,6 km/h (4 Bft)
30.01.2013 16:58 10,2 C 7,3 C 88 % 15 lf 1007,2 hPa 0,0 l/m 0 min 0,0 UV-I 16 W/m 12,9 km/h (3 Bft)
30.01.2013 17:00 10,1 C 7,3 C 88 % 15 lf 1007,3 hPa 0,0 l/m 2 min 0,0 UV-I 21 W/m 18,0 km/h (3 Bft)
30.01.2013 17:02 10,1 C 7,3 C 88 % 15 lf 1007,3 hPa 0,0 l/m 2 min 0,0 UV-I 21 W/m 20,6 km/h (4 Bft)
30.01.2013 17:04 10,1 C 7,3 C 88 % 15 lf 1007,3 hPa 0,0 l/m 0 min 0,0 UV-I 14 W/m 18,0 km/h (3 Bft)
30.01.2013 17:06 10,1 C 7,3 C 88 % 14 lf 1007,3 hPa 0,0 l/m 0 min 0,0 UV-I 11 W/m 12,9 km/h (3 Bft)
30.01.2013 17:08 10,0 C 7,3 C 88 % 14 lf 1007,4 hPa 0,0 l/m 0 min 0,0 UV-I 12 W/m 12,9 km/h (3 Bft)
30.01.2013 17:10 10,0 C 7,3 C 88 % 14 lf 1007,4 hPa 0,0 l/m 0 min 0,0 UV-I 12 W/m 15,4 km/h (3 Bft)
30.01.2013 17:12 9,9 C 7,3 C 88 % 14 lf 1007,5 hPa 0,0 l/m 0 min 0,0 UV-I 7 W/m 10,3 km/h (2 Bft)
30.01.2013 17:14 9,9 C 7,3 C 88 % 13 lf 1007,5 hPa 0,0 l/m 0 min 0,0 UV-I 7 W/m 23,2 km/h (4 Bft)
30.01.2013 17:16 9,9 C 7,3 C 88 % 13 lf 1007,4 hPa 0,0 l/m 0 min 0,0 UV-I 5 W/m 7,7 km/h (2 Bft)
30.01.2013 17:18 9,9 C 7,3 C 88 % 13 lf 1007,3 hPa 0,0 l/m 0 min 0,0 UV-I 5 W/m 15,4 km/h (3 Bft)
30.01.2013 17:20 9,8 C 7,3 C 88 % 12 lf 1007,3 hPa 0,0 l/m 0 min 0,0 UV-I 5 W/m 20,6 km/h (4 Bft)
30.01.2013 17:22 9,8 C 7,3 C 88 % 10 lf 1007,3 hPa 0,0 l/m 0 min 0,0 UV-I 0 W/m 5,1 km/h (1 Bft)
30.01.2013 17:24 9,8 C 7,3 C 88 % 7 lf 1007,4 hPa 0,0 l/m 0 min 0,0 UV-I 0 W/m 15,4 km/h (3 Bft)
30.01.2013 17:26 9,8 C 7,3 C 87 % 4 lf 1007,4 hPa 0,0 l/m 0 min 0,0 UV-I 0 W/m 15,4 km/h (3 Bft)
30.01.2013 17:28 9,8 C 7,3 C 87 % 3 lf 1007,4 hPa 0,0 l/m 0 min 0,0 UV-I 0 W/m 15,4 km/h (3 Bft)
30.01.2013 17:30 9,8 C 7,3 C 87 % 2 lf 1007,5 hPa 0,0 l/m 0 min 0,0 UV-I 0 W/m 12,9 km/h (3 Bft)
30.01.2013 17:32 9,8 C 7,3 C 87 % 1 lf 1007,4 hPa 0,0 l/m 0 min 0,0 UV-I 0 W/m 18,0 km/h (3 Bft)
30.01.2013 17:34 9,8 C 7,9 C 87 % 1 lf 1007,5 hPa 0,0 l/m 0 min 0,0 UV-I 0 W/m 12,9 km/h (3 Bft)
30.01.2013 17:36 9,8 C 7,9 C 86 % 1 lf 1007,3 hPa 0,0 l/m 0 min 0,0 UV-I 0 W/m 23,2 km/h (4 Bft)
30.01.2013 17:38 9,8 C 7,9 C 86 % 1 lf 1007,4 hPa 0,0 l/m 0 min 0,0 UV-I 0 W/m 28,3 km/h (4 Bft)
30.01.2013 17:40 9,8 C 7,9 C 85 % 0 lf 1007,5 hPa 0,0 l/m 0 min 0,0 UV-I 0 W/m 20,6 km/h (4 Bft)
30.01.2013 17:42 9,8 C 7,9 C 85 % 0 lf 1007,6 hPa 0,0 l/m 0 min 0,0 UV-I 0 W/m 23,2 km/h (4 Bft)
30.01.2013 17:44 9,8 C 7,9 C 84 % 0 lf 1007,6 hPa 0,0 l/m 0 min 0,0 UV-I 0 W/m 30,9 km/h (5 Bft)
30.01.2013 17:46 9,8 C 7,9 C 84 % 0 lf 1007,5 hPa 0,0 l/m 0 min 0,0 UV-I 0 W/m 18,0 km/h (3 Bft)
30.01.2013 17:48 9,9 C 7,9 C 83 % 0 lf 1007,6 hPa 0,0 l/m 0 min 0,0 UV-I 0 W/m 23,2 km/h (4 Bft)
30.01.2013 17:50 9,9 C 7,9 C 83 % 0 lf 1007,8 hPa 0,0 l/m 0 min 0,0 UV-I 0 W/m 18,0 km/h (3 Bft)
30.01.2013 17:52 9,9 C 7,9 C 83 % 0 lf 1007,9 hPa 0,0 l/m 0 min 0,0 UV-I 0 W/m 15,4 km/h (3 Bft)
30.01.2013 17:54 9,9 C 7,9 C 83 % 0 lf 1007,9 hPa 0,0 l/m 0 min 0,0 UV-I 0 W/m 12,9 km/h (3 Bft)
30.01.2013 17:56 9,9 C 7,9 C 83 % 0 lf 1008,1 hPa 0,0 l/m 0 min 0,0 UV-I 0 W/m 30,9 km/h (5 Bft)
30.01.2013 17:58 9,9 C 7,9 C 83 % 0 lf 1008,0 hPa 0,0 l/m 0 min 0,0 UV-I 0 W/m 23,2 km/h (4 Bft)
30.01.2013 18:00 9,9 C 7,9 C 83 % 0 lf 1008,1 hPa 0,0 l/m 0 min 0,0 UV-I 0 W/m 12,9 km/h (3 Bft)
30.01.2013 18:02 9,8 C 7,9 C 83 % 0 lf 1008,0 hPa 0,0 l/m 0 min 0,0 UV-I 0 W/m 12,9 km/h (3 Bft)
30.01.2013 18:04 9,8 C 7,9 C 83 % 0 lf 1008,1 hPa 0,0 l/m 0 min 0,0 UV-I 0 W/m 18,0 km/h (3 Bft)
30.01.2013 18:06 9,8 C 7,9 C 83 % 0 lf 1008,1 hPa 0,0 l/m 0 min 0,0 UV-I 0 W/m 15,4 km/h (3 Bft)
30.01.2013 18:08 9,8 C 7,9 C 83 % 0 lf 1008,1 hPa 0,0 l/m 0 min 0,0 UV-I 0 W/m 7,7 km/h (2 Bft)
30.01.2013 18:10 9,8 C 7,9 C 83 % 0 lf 1008,2 hPa 0,0 l/m 0 min 0,0 UV-I 0 W/m 18,0 km/h (3 Bft)
30.01.2013 18:12 9,8 C 7,9 C 83 % 0 lf 1008,2 hPa 0,0 l/m 0 min 0,0 UV-I 0 W/m 28,3 km/h (4 Bft)
30.01.2013 18:14 9,8 C 7,9 C 83 % 0 lf 1008,2 hPa 0,0 l/m 0 min 0,0 UV-I 0 W/m 15,4 km/h (3 Bft)
30.01.2013 18:16 9,8 C 8,4 C 82 % 0 lf 1008,3 hPa 0,0 l/m 0 min 0,0 UV-I 0 W/m 33,5 km/h (5 Bft)
30.01.2013 18:18 9,8 C 7,9 C 82 % 0 lf 1008,2 hPa 0,0 l/m 0 min 0,0 UV-I 0 W/m 12,9 km/h (3 Bft)
30.01.2013 18:20 9,8 C 7,9 C 82 % 0 lf 1008,2 hPa 0,0 l/m 0 min 0,0 UV-I 0 W/m 10,3 km/h (2 Bft)
30.01.2013 18:22 9,8 C 7,9 C 82 % 0 lf 1008,2 hPa 0,0 l/m 0 min 0,0 UV-I 0 W/m 18,0 km/h (3 Bft)
30.01.2013 18:24 9,8 C 7,9 C 82 % 0 lf 1008,2 hPa 0,0 l/m 0 min 0,0 UV-I 0 W/m 10,3 km/h (2 Bft)
30.01.2013 18:26 9,8 C 7,9 C 82 % 0 lf 1008,3 hPa 0,0 l/m 0 min 0,0 UV-I 0 W/m 18,0 km/h (3 Bft)
30.01.2013 18:28 9,8 C 7,9 C 82 % 0 lf 1008,4 hPa 0,0 l/m 0 min 0,0 UV-I 0 W/m 18,0 km/h (3 Bft)
30.01.2013 18:30 9,8 C 8,4 C 82 % 0 lf 1008,5 hPa 0,0 l/m 0 min 0,0 UV-I 0 W/m 20,6 km/h (4 Bft)
30.01.2013 18:32 9,8 C 7,9 C 81 % 0 lf 1008,5 hPa 0,0 l/m 0 min 0,0 UV-I 0 W/m 30,9 km/h (5 Bft)
30.01.2013 18:34 9,8 C 7,9 C 81 % 0 lf 1008,6 hPa 0,0 l/m 0 min 0,0 UV-I 0 W/m 20,6 km/h (4 Bft)
30.01.2013 18:36 9,8 C 7,9 C 81 % 0 lf 1008,5 hPa 0,0 l/m 0 min 0,0 UV-I 0 W/m 15,4 km/h (3 Bft)
30.01.2013 18:38 9,8 C 7,9 C 81 % 0 lf 1008,6 hPa 0,0 l/m 0 min 0,0 UV-I 0 W/m 15,4 km/h (3 Bft)
30.01.2013 18:40 9,7 C 7,9 C 81 % 0 lf 1008,6 hPa 0,0 l/m 0 min 0,0 UV-I 0 W/m 15,4 km/h (3 Bft)
30.01.2013 18:42 9,7 C 7,9 C 80 % 0 lf 1008,7 hPa 0,0 l/m 0 min 0,0 UV-I 0 W/m 30,9 km/h (5 Bft)
30.01.2013 18:44 9,7 C 7,9 C 80 % 0 lf 1008,8 hPa 0,0 l/m 0 min 0,0 UV-I 0 W/m 25,7 km/h (4 Bft)
30.01.2013 18:46 9,7 C 8,4 C 79 % 0 lf 1009,0 hPa 0,0 l/m 0 min 0,0 UV-I 0 W/m 25,7 km/h (4 Bft)
30.01.2013 18:48 9,7 C 7,9 C 79 % 0 lf 1008,9 hPa 0,0 l/m 0 min 0,0 UV-I 0 W/m 12,9 km/h (3 Bft)
30.01.2013 18:50 9,8 C 8,4 C 78 % 0 lf 1008,9 hPa 0,0 l/m 0 min 0,0 UV-I 0 W/m 20,6 km/h (4 Bft)
30.01.2013 18:52 9,8 C 8,4 C 78 % 0 lf 1009,0 hPa 0,0 l/m 0 min 0,0 UV-I 0 W/m 18,0 km/h (3 Bft)
30.01.2013 18:54 9,8 C 7,9 C 78 % 0 lf 1009,1 hPa 0,0 l/m 0 min 0,0 UV-I 0 W/m 18,0 km/h (3 Bft)
30.01.2013 18:56 9,8 C 7,9 C 78 % 0 lf 1008,9 hPa 0,0 l/m 0 min 0,0 UV-I 0 W/m 18,0 km/h (3 Bft)
30.01.2013 18:58 9,8 C 7,9 C 78 % 0 lf 1009,1 hPa 0,0 l/m 0 min 0,0 UV-I 0 W/m 20,6 km/h (4 Bft)
30.01.2013 19:00 9,8 C 7,9 C 78 % 0 lf 1009,1 hPa 0,0 l/m 0 min 0,0 UV-I 0 W/m 25,7 km/h (4 Bft)
30.01.2013 19:02 9,8 C 7,9 C 78 % 0 lf 1009,2 hPa 0,0 l/m 0 min 0,0 UV-I 0 W/m 23,2 km/h (4 Bft)
30.01.2013 19:04 9,8 C 7,9 C 78 % 0 lf 1009,2 hPa 0,0 l/m 0 min 0,0 UV-I 0 W/m 36,0 km/h (5 Bft)
30.01.2013 19:06 9,8 C 7,9 C 78 % 0 lf 1009,1 hPa 0,0 l/m 0 min 0,0 UV-I 0 W/m 15,4 km/h (3 Bft)
30.01.2013 19:08 9,7 C 7,9 C 78 % 0 lf 1009,2 hPa 0,0 l/m 0 min 0,0 UV-I 0 W/m 30,9 km/h (5 Bft)
30.01.2013 19:10 9,7 C 7,9 C 78 % 0 lf 1009,3 hPa 0,0 l/m 0 min 0,0 UV-I 0 W/m 15,4 km/h (3 Bft)
30.01.2013 19:12 9,7 C 7,9 C 78 % 0 lf 1009,3 hPa 0,0 l/m 0 min 0,0 UV-I 0 W/m 23,2 km/h (4 Bft)
30.01.2013 19:14 9,7 C 7,9 C 78 % 0 lf 1009,4 hPa 0,0 l/m 0 min 0,0 UV-I 0 W/m 20,6 km/h (4 Bft)
30.01.2013 19:16 9,6 C 7,9 C 78 % 0 lf 1009,3 hPa 0,0 l/m 0 min 0,0 UV-I 0 W/m 15,4 km/h (3 Bft)
30.01.2013 19:18 9,6 C 7,9 C 79 % 0 lf 1009,3 hPa 0,0 l/m 0 min 0,0 UV-I 0 W/m 23,2 km/h (4 Bft)
30.01.2013 19:20 9,6 C 7,9 C 79 % 0 lf 1009,3 hPa 0,0 l/m 0 min 0,0 UV-I 0 W/m 20,6 km/h (4 Bft)
30.01.2013 19:22 9,6 C 7,9 C 79 % 0 lf 1009,3 hPa 0,0 l/m 0 min 0,0 UV-I 0 W/m 25,7 km/h (4 Bft)
30.01.2013 19:24 9,5 C 7,9 C 79 % 0 lf 1009,4 hPa 0,0 l/m 0 min 0,0 UV-I 0 W/m 20,6 km/h (4 Bft)
30.01.2013 19:26 9,5 C 7,9 C 79 % 0 lf 1009,3 hPa 0,0 l/m 0 min 0,0 UV-I 0 W/m 18,0 km/h (3 Bft)
30.01.2013 19:28 9,4 C 7,9 C 80 % 0 lf 1009,3 hPa 0,0 l/m 0 min 0,0 UV-I 0 W/m 25,7 km/h (4 Bft)
30.01.2013 19:30 9,4 C 7,3 C 80 % 0 lf 1009,3 hPa 0,0 l/m 0 min 0,0 UV-I 0 W/m 18,0 km/h (3 Bft)
30.01.2013 19:32 9,4 C 7,3 C 80 % 0 lf 1009,4 hPa 0,0 l/m 0 min 0,0 UV-I 0 W/m 15,4 km/h (3 Bft)
30.01.2013 19:34 9,4 C 7,3 C 80 % 0 lf 1009,4 hPa 0,0 l/m 0 min 0,0 UV-I 0 W/m 10,3 km/h (2 Bft)
30.01.2013 19:36 9,4 C 7,3 C 81 % 0 lf 1009,4 hPa 0,0 l/m 0 min 0,0 UV-I 0 W/m 23,2 km/h (4 Bft)
30.01.2013 19:38 9,3 C 7,3 C 81 % 0 lf 1009,5 hPa 0,0 l/m 0 min 0,0 UV-I 0 W/m 12,9 km/h (3 Bft)
30.01.2013 19:40 9,3 C 7,3 C 81 % 0 lf 1009,4 hPa 0,0 l/m 0 min 0,0 UV-I 0 W/m 15,4 km/h (3 Bft)
30.01.2013 19:42 9,3 C 7,3 C 81 % 0 lf 1009,4 hPa 0,0 l/m 0 min 0,0 UV-I 0 W/m 20,6 km/h (4 Bft)
30.01.2013 19:44 9,3 C 7,3 C 81 % 0 lf 1009,7 hPa 0,0 l/m 0 min 0,0 UV-I 0 W/m 20,6 km/h (4 Bft)
30.01.2013 19:46 9,2 C 7,3 C 81 % 0 lf 1009,7 hPa 0,0 l/m 0 min 0,0 UV-I 0 W/m 41,2 km/h (6 Bft)
30.01.2013 19:48 9,2 C 7,3 C 81 % 0 lf 1009,7 hPa 0,0 l/m 0 min 0,0 UV-I 0 W/m 28,3 km/h (4 Bft)
30.01.2013 19:50 9,2 C 7,3 C 81 % 0 lf 1009,9 hPa 0,0 l/m 0 min 0,0 UV-I 0 W/m 28,3 km/h (4 Bft)
30.01.2013 19:52 9,2 C 7,3 C 81 % 0 lf 1009,7 hPa 0,0 l/m 0 min 0,0 UV-I 0 W/m 28,3 km/h (4 Bft)
30.01.2013 19:54 9,2 C 7,3 C 81 % 0 lf 1009,8 hPa 0,0 l/m 0 min 0,0 UV-I 0 W/m 30,9 km/h (5 Bft)
30.01.2013 19:56 9,2 C 7,3 C 81 % 0 lf 1009,9 hPa 0,0 l/m 0 min 0,0 UV-I 0 W/m 28,3 km/h (4 Bft)
30.01.2013 19:58 9,2 C 7,3 C 81 % 0 lf 1009,9 hPa 0,0 l/m 0 min 0,0 UV-I 0 W/m 23,2 km/h (4 Bft)
30.01.2013 20:00 9,2 C 7,3 C 81 % 0 lf 1010,0 hPa 0,0 l/m 0 min 0,0 UV-I 0 W/m 20,6 km/h (4 Bft)
30.01.2013 20:02 9,1 C 7,3 C 81 % 0 lf 1009,8 hPa 0,0 l/m 0 min 0,0 UV-I 0 W/m 33,5 km/h (5 Bft)
30.01.2013 20:04 9,1 C 7,3 C 81 % 0 lf 1010,0 hPa 0,0 l/m 0 min 0,0 UV-I 0 W/m 30,9 km/h (5 Bft)
30.01.2013 20:06 9,1 C 7,3 C 81 % 0 lf 1009,9 hPa 0,0 l/m 0 min 0,0 UV-I 0 W/m 25,7 km/h (4 Bft)
30.01.2013 20:08 9,1 C 7,3 C 81 % 0 lf 1009,9 hPa 0,0 l/m 0 min 0,0 UV-I 0 W/m 18,0 km/h (3 Bft)
30.01.2013 20:10 9,1 C 7,3 C 81 % 0 lf 1009,8 hPa 0,0 l/m 0 min 0,0 UV-I 0 W/m 12,9 km/h (3 Bft)
30.01.2013 20:12 9,1 C 7,3 C 81 % 0 lf 1009,8 hPa 0,0 l/m 0 min 0,0 UV-I 0 W/m 20,6 km/h (4 Bft)
30.01.2013 20:14 9,1 C 7,3 C 81 % 0 lf 1009,8 hPa 0,0 l/m 0 min 0,0 UV-I 0 W/m 10,3 km/h (2 Bft)
30.01.2013 20:16 9,0 C 7,3 C 81 % 0 lf 1009,8 hPa 0,0 l/m 0 min 0,0 UV-I 0 W/m 20,6 km/h (4 Bft)
30.01.2013 20:18 9,0 C 7,3 C 81 % 0 lf 1010,1 hPa 0,0 l/m 0 min 0,0 UV-I 0 W/m 28,3 km/h (4 Bft)
30.01.2013 20:20 9,0 C 7,3 C 81 % 0 lf 1010,0 hPa 0,0 l/m 0 min 0,0 UV-I 0 W/m 18,0 km/h (3 Bft)
30.01.2013 20:22 8,9 C 7,3 C 81 % 0 lf 1010,1 hPa 0,0 l/m 0 min 0,0 UV-I 0 W/m 23,2 km/h (4 Bft)
30.01.2013 20:24 8,9 C 7,3 C 81 % 0 lf 1010,1 hPa 0,0 l/m 0 min 0,0 UV-I 0 W/m 28,3 km/h (4 Bft)
30.01.2013 20:26 8,9 C 7,3 C 81 % 0 lf 1010,3 hPa 0,0 l/m 0 min 0,0 UV-I 0 W/m 18,0 km/h (3 Bft)
30.01.2013 20:28 8,9 C 7,3 C 81 % 0 lf 1010,3 hPa 0,0 l/m 0 min 0,0 UV-I 0 W/m 15,4 km/h (3 Bft)
30.01.2013 20:30 8,8 C 7,3 C 81 % 0 lf 1010,2 hPa 0,0 l/m 0 min 0,0 UV-I 0 W/m 20,6 km/h (4 Bft)
30.01.2013 20:32 8,8 C 6,8 C 81 % 0 lf 1010,2 hPa 0,0 l/m 0 min 0,0 UV-I 0 W/m 23,2 km/h (4 Bft)
30.01.2013 20:34 8,8 C 7,3 C 81 % 0 lf 1010,3 hPa 0,0 l/m 0 min 0,0 UV-I 0 W/m 20,6 km/h (4 Bft)
30.01.2013 20:36 8,8 C 7,3 C 81 % 0 lf 1010,5 hPa 0,0 l/m 0 min 0,0 UV-I 0 W/m 25,7 km/h (4 Bft)
30.01.2013 20:38 8,8 C 7,3 C 81 % 0 lf 1010,4 hPa 0,0 l/m 0 min 0,0 UV-I 0 W/m 23,2 km/h (4 Bft)
30.01.2013 20:40 8,8 C 7,3 C 81 % 0 lf 1010,7 hPa 0,0 l/m 0 min 0,0 UV-I 0 W/m 23,2 km/h (4 Bft)
30.01.2013 20:42 8,8 C 7,3 C 81 % 0 lf 1010,7 hPa 0,0 l/m 0 min 0,0 UV-I 0 W/m 20,6 km/h (4 Bft)
30.01.2013 20:44 8,8 C 7,3 C 82 % 0 lf 1010,8 hPa 0,0 l/m 0 min 0,0 UV-I 0 W/m 20,6 km/h (4 Bft)
30.01.2013 20:46 8,8 C 7,3 C 82 % 0 lf 1010,8 hPa 0,0 l/m 0 min 0,0 UV-I 0 W/m 18,0 km/h (3 Bft)
30.01.2013 20:48 8,8 C 7,3 C 82 % 0 lf 1010,9 hPa 0,0 l/m 0 min 0,0 UV-I 0 W/m 25,7 km/h (4 Bft)
30.01.2013 20:50 8,7 C 6,8 C 82 % 0 lf 1010,8 hPa 0,0 l/m 0 min 0,0 UV-I 0 W/m 20,6 km/h (4 Bft)
30.01.2013 20:52 8,7 C 7,3 C 82 % 0 lf 1011,0 hPa 0,0 l/m 0 min 0,0 UV-I 0 W/m 20,6 km/h (4 Bft)
30.01.2013 20:54 8,7 C 6,8 C 82 % 0 lf 1011,1 hPa 0,0 l/m 0 min 0,0 UV-I 0 W/m 28,3 km/h (4 Bft)
30.01.2013 20:56 8,7 C 6,8 C 82 % 0 lf 1010,9 hPa 0,0 l/m 0 min 0,0 UV-I 0 W/m 18,0 km/h (3 Bft)
30.01.2013 20:58 8,7 C 6,8 C 82 % 0 lf 1011,0 hPa 0,0 l/m 0 min 0,0 UV-I 0 W/m 18,0 km/h (3 Bft)
30.01.2013 21:00 8,7 C 6,8 C 82 % 0 lf 1011,1 hPa 0,0 l/m 0 min 0,0 UV-I 0 W/m 30,9 km/h (5 Bft)
30.01.2013 21:02 8,7 C 6,8 C 82 % 0 lf 1010,9 hPa 0,0 l/m 0 min 0,0 UV-I 0 W/m 18,0 km/h (3 Bft)
30.01.2013 21:04 8,6 C 6,8 C 82 % 0 lf 1010,9 hPa 0,0 l/m 0 min 0,0 UV-I 0 W/m 30,9 km/h (5 Bft)
30.01.2013 21:06 8,6 C 6,8 C 82 % 0 lf 1011,1 hPa 0,0 l/m 0 min 0,0 UV-I 0 W/m 20,6 km/h (4 Bft)
30.01.2013 21:08 8,6 C 6,8 C 82 % 0 lf 1011,0 hPa 0,0 l/m 0 min 0,0 UV-I 0 W/m 15,4 km/h (3 Bft)
30.01.2013 21:10 8,6 C 6,8 C 83 % 0 lf 1011,1 hPa 0,0 l/m 0 min 0,0 UV-I 0 W/m 33,5 km/h (5 Bft)
30.01.2013 21:12 8,6 C 6,8 C 83 % 0 lf 1011,5 hPa 0,0 l/m 0 min 0,0 UV-I 0 W/m 28,3 km/h (4 Bft)
30.01.2013 21:14 8,6 C 6,8 C 83 % 0 lf 1011,2 hPa 0,0 l/m 0 min 0,0 UV-I 0 W/m 20,6 km/h (4 Bft)
30.01.2013 21:16 8,6 C 6,8 C 83 % 0 lf 1011,3 hPa 0,0 l/m 0 min 0,0 UV-I 0 W/m 18,0 km/h (3 Bft)
30.01.2013 21:18 8,6 C 6,8 C 83 % 0 lf 1011,3 hPa 0,0 l/m 0 min 0,0 UV-I 0 W/m 33,5 km/h (5 Bft)
30.01.2013 21:20 8,6 C 6,8 C 83 % 0 lf 1011,3 hPa 0,0 l/m 0 min 0,0 UV-I 0 W/m 23,2 km/h (4 Bft)
30.01.2013 21:22 8,5 C 6,8 C 83 % 0 lf 1011,6 hPa 0,0 l/m 0 min 0,0 UV-I 0 W/m 15,4 km/h (3 Bft)
30.01.2013 21:24 8,5 C 6,8 C 83 % 0 lf 1011,5 hPa 0,0 l/m 0 min 0,0 UV-I 0 W/m 28,3 km/h (4 Bft)
30.01.2013 21:26 8,5 C 6,8 C 83 % 0 lf 1011,4 hPa 0,0 l/m 0 min 0,0 UV-I 0 W/m 20,6 km/h (4 Bft)
30.01.2013 21:28 8,5 C 6,8 C 83 % 0 lf 1011,3 hPa 0,0 l/m 0 min 0,0 UV-I 0 W/m 20,6 km/h (4 Bft)
30.01.2013 21:30 8,5 C 6,8 C 83 % 0 lf 1011,6 hPa 0,0 l/m 0 min 0,0 UV-I 0 W/m 30,9 km/h (5 Bft)
30.01.2013 21:32 8,5 C 6,8 C 83 % 0 lf 1011,5 hPa 0,0 l/m 0 min 0,0 UV-I 0 W/m 28,3 km/h (4 Bft)
30.01.2013 21:34 8,4 C 6,8 C 83 % 0 lf 1011,5 hPa 0,0 l/m 0 min 0,0 UV-I 0 W/m 30,9 km/h (5 Bft)
30.01.2013 21:36 8,4 C 6,8 C 83 % 0 lf 1012,1 hPa 0,0 l/m 0 min 0,0 UV-I 0 W/m 25,7 km/h (4 Bft)
30.01.2013 21:38 8,4 C 6,8 C 83 % 0 lf 1012,0 hPa 0,0 l/m 0 min 0,0 UV-I 0 W/m 25,7 km/h (4 Bft)
30.01.2013 21:40 8,4 C 6,8 C 83 % 0 lf 1011,5 hPa 0,0 l/m 0 min 0,0 UV-I 0 W/m 25,7 km/h (4 Bft)
30.01.2013 21:42 8,4 C 6,8 C 83 % 0 lf 1011,6 hPa 0,0 l/m 0 min 0,0 UV-I 0 W/m 28,3 km/h (4 Bft)
30.01.2013 21:44 8,4 C 6,8 C 83 % 0 lf 1011,7 hPa 0,0 l/m 0 min 0,0 UV-I 0 W/m 23,2 km/h (4 Bft)
30.01.2013 21:46 8,4 C 6,8 C 83 % 0 lf 1011,8 hPa 0,0 l/m 0 min 0,0 UV-I 0 W/m 38,6 km/h (5 Bft)
30.01.2013 21:48 8,4 C 6,8 C 83 % 0 lf 1011,8 hPa 0,0 l/m 0 min 0,0 UV-I 0 W/m 18,0 km/h (3 Bft)
30.01.2013 21:50 8,4 C 6,8 C 83 % 0 lf 1011,9 hPa 0,0 l/m 0 min 0,0 UV-I 0 W/m 20,6 km/h (4 Bft)
30.01.2013 21:52 8,4 C 6,8 C 82 % 0 lf 1011,7 hPa 0,0 l/m 0 min 0,0 UV-I 0 W/m 25,7 km/h (4 Bft)
30.01.2013 21:54 8,4 C 6,8 C 82 % 0 lf 1011,8 hPa 0,0 l/m 0 min 0,0 UV-I 0 W/m 18,0 km/h (3 Bft)
30.01.2013 21:56 8,4 C 6,8 C 82 % 0 lf 1011,6 hPa 0,0 l/m 0 min 0,0 UV-I 0 W/m 18,0 km/h (3 Bft)
30.01.2013 21:58 8,4 C 6,8 C 82 % 0 lf 1011,9 hPa 0,0 l/m 0 min 0,0 UV-I 0 W/m 18,0 km/h (3 Bft)
30.01.2013 22:00 8,4 C 6,8 C 82 % 0 lf 1011,8 hPa 0,0 l/m 0 min 0,0 UV-I 0 W/m 43,8 km/h (6 Bft)
30.01.2013 22:02 8,3 C 6,8 C 82 % 0 lf 1011,7 hPa 0,0 l/m 0 min 0,0 UV-I 0 W/m 30,9 km/h (5 Bft)
30.01.2013 22:04 8,3 C 6,8 C 82 % 0 lf 1011,8 hPa 0,0 l/m 0 min 0,0 UV-I 0 W/m 25,7 km/h (4 Bft)
30.01.2013 22:06 8,3 C 6,8 C 82 % 0 lf 1012,0 hPa 0,0 l/m 0 min 0,0 UV-I 0 W/m 23,2 km/h (4 Bft)
30.01.2013 22:08 8,3 C 6,8 C 82 % 0 lf 1012,0 hPa 0,0 l/m 0 min 0,0 UV-I 0 W/m 28,3 km/h (4 Bft)
30.01.2013 22:10 8,4 C 6,8 C 82 % 0 lf 1012,1 hPa 0,0 l/m 0 min 0,0 UV-I 0 W/m 23,2 km/h (4 Bft)
30.01.2013 22:12 8,4 C 6,8 C 82 % 0 lf 1012,0 hPa 0,0 l/m 0 min 0,0 UV-I 0 W/m 28,3 km/h (4 Bft)
30.01.2013 22:14 8,4 C 6,8 C 82 % 0 lf 1012,1 hPa 0,0 l/m 0 min 0,0 UV-I 0 W/m 30,9 km/h (5 Bft)
30.01.2013 22:16 8,4 C 6,8 C 82 % 0 lf 1012,0 hPa 0,0 l/m 0 min 0,0 UV-I 0 W/m 30,9 km/h (5 Bft)
30.01.2013 22:18 8,4 C 6,8 C 82 % 0 lf 1012,1 hPa 0,0 l/m 0 min 0,0 UV-I 0 W/m 20,6 km/h (4 Bft)
30.01.2013 22:20 8,4 C 6,8 C 82 % 0 lf 1012,1 hPa 0,0 l/m 0 min 0,0 UV-I 0 W/m 28,3 km/h (4 Bft)
30.01.2013 22:22 8,4 C 6,8 C 82 % 0 lf 1012,3 hPa 0,0 l/m 0 min 0,0 UV-I 0 W/m 28,3 km/h (4 Bft)
30.01.2013 22:24 8,4 C 6,8 C 82 % 0 lf 1012,4 hPa 0,0 l/m 0 min 0,0 UV-I 0 W/m 25,7 km/h (4 Bft)
30.01.2013 22:26 8,4 C 6,8 C 82 % 0 lf 1012,3 hPa 0,0 l/m 0 min 0,0 UV-I 0 W/m 25,7 km/h (4 Bft)
30.01.2013 22:28 8,4 C 6,8 C 82 % 0 lf 1012,3 hPa 0,0 l/m 0 min 0,0 UV-I 0 W/m 15,4 km/h (3 Bft)
30.01.2013 22:30 8,4 C 6,8 C 82 % 0 lf 1012,3 hPa 0,0 l/m 0 min 0,0 UV-I 0 W/m 20,6 km/h (4 Bft)
30.01.2013 22:32 8,4 C 6,8 C 82 % 0 lf 1012,2 hPa 0,0 l/m 0 min 0,0 UV-I 0 W/m 30,9 km/h (5 Bft)
30.01.2013 22:34 8,5 C 6,8 C 82 % 0 lf 1012,3 hPa 0,0 l/m 0 min 0,0 UV-I 0 W/m 20,6 km/h (4 Bft)
30.01.2013 22:36 8,4 C 6,8 C 82 % 0 lf 1012,4 hPa 0,0 l/m 0 min 0,0 UV-I 0 W/m 28,3 km/h (4 Bft)
30.01.2013 22:38 8,4 C 6,8 C 82 % 0 lf 1012,4 hPa 0,0 l/m 0 min 0,0 UV-I 0 W/m 18,0 km/h (3 Bft)
30.01.2013 22:40 8,4 C 6,8 C 82 % 0 lf 1012,4 hPa 0,0 l/m 0 min 0,0 UV-I 0 W/m 23,2 km/h (4 Bft)
30.01.2013 22:42 8,4 C 6,8 C 82 % 0 lf 1012,4 hPa 0,0 l/m 0 min 0,0 UV-I 0 W/m 30,9 km/h (5 Bft)
30.01.2013 22:44 8,4 C 6,8 C 82 % 0 lf 1012,4 hPa 0,0 l/m 0 min 0,0 UV-I 0 W/m 38,6 km/h (5 Bft)
30.01.2013 22:46 8,4 C 6,8 C 82 % 0 lf 1012,4 hPa 0,0 l/m 0 min 0,0 UV-I 0 W/m 23,2 km/h (4 Bft)
30.01.2013 22:48 8,4 C 6,8 C 82 % 0 lf 1012,4 hPa 0,0 l/m 0 min 0,0 UV-I 0 W/m 28,3 km/h (4 Bft)
30.01.2013 22:50 8,4 C 6,8 C 82 % 0 lf 1012,4 hPa 0,0 l/m 0 min 0,0 UV-I 0 W/m 28,3 km/h (4 Bft)
30.01.2013 22:52 8,4 C 6,8 C 82 % 0 lf 1012,4 hPa 0,0 l/m 0 min 0,0 UV-I 0 W/m 30,9 km/h (5 Bft)
30.01.2013 22:54 8,4 C 6,8 C 82 % 0 lf 1012,6 hPa 0,0 l/m 0 min 0,0 UV-I 0 W/m 38,6 km/h (5 Bft)
30.01.2013 22:56 8,4 C 6,8 C 82 % 0 lf 1012,5 hPa 0,0 l/m 0 min 0,0 UV-I 0 W/m 23,2 km/h (4 Bft)
30.01.2013 22:58 8,4 C 6,8 C 82 % 0 lf 1012,5 hPa 0,0 l/m 0 min 0,0 UV-I 0 W/m 23,2 km/h (4 Bft)
30.01.2013 23:00 8,4 C 6,8 C 82 % 0 lf 1012,5 hPa 0,0 l/m 0 min 0,0 UV-I 0 W/m 20,6 km/h (4 Bft)
30.01.2013 23:02 8,4 C 6,8 C 82 % 0 lf 1012,6 hPa 0,0 l/m 0 min 0,0 UV-I 0 W/m 25,7 km/h (4 Bft)
30.01.2013 23:04 8,4 C 6,8 C 82 % 0 lf 1012,7 hPa 0,0 l/m 0 min 0,0 UV-I 0 W/m 18,0 km/h (3 Bft)
30.01.2013 23:06 8,4 C 6,8 C 82 % 0 lf 1012,8 hPa 0,0 l/m 0 min 0,0 UV-I 0 W/m 23,2 km/h (4 Bft)
30.01.2013 23:08 8,4 C 6,8 C 82 % 0 lf 1012,8 hPa 0,0 l/m 0 min 0,0 UV-I 0 W/m 28,3 km/h (4 Bft)
30.01.2013 23:10 8,4 C 6,8 C 82 % 0 lf 1012,8 hPa 0,0 l/m 0 min 0,0 UV-I 0 W/m 15,4 km/h (3 Bft)
30.01.2013 23:12 8,4 C 6,8 C 82 % 0 lf 1012,8 hPa 0,0 l/m 0 min 0,0 UV-I 0 W/m 28,3 km/h (4 Bft)
30.01.2013 23:14 8,4 C 6,8 C 82 % 0 lf 1012,9 hPa 0,0 l/m 0 min 0,0 UV-I 0 W/m 25,7 km/h (4 Bft)
30.01.2013 23:16 8,4 C 7,3 C 82 % 0 lf 1012,8 hPa 0,0 l/m 0 min 0,0 UV-I 0 W/m 23,2 km/h (4 Bft)
30.01.2013 23:18 8,4 C 7,3 C 82 % 0 lf 1013,1 hPa 0,0 l/m 0 min 0,0 UV-I 0 W/m 30,9 km/h (5 Bft)
30.01.2013 23:20 8,5 C 6,8 C 82 % 0 lf 1013,1 hPa 0,0 l/m 0 min 0,0 UV-I 0 W/m 15,4 km/h (3 Bft)
30.01.2013 23:22 8,5 C 6,8 C 82 % 0 lf 1013,1 hPa 0,0 l/m 0 min 0,0 UV-I 0 W/m 18,0 km/h (3 Bft)
30.01.2013 23:24 8,5 C 6,8 C 82 % 0 lf 1013,1 hPa 0,0 l/m 0 min 0,0 UV-I 0 W/m 20,6 km/h (4 Bft)
30.01.2013 23:26 8,4 C 6,8 C 82 % 0 lf 1012,9 hPa 0,0 l/m 0 min 0,0 UV-I 0 W/m 18,0 km/h (3 Bft)
30.01.2013 23:28 8,5 C 6,8 C 82 % 0 lf 1012,9 hPa 0,0 l/m 0 min 0,0 UV-I 0 W/m 15,4 km/h (3 Bft)
30.01.2013 23:30 8,4 C 7,3 C 82 % 0 lf 1012,8 hPa 0,0 l/m 0 min 0,0 UV-I 0 W/m 30,9 km/h (5 Bft)
30.01.2013 23:32 8,5 C 7,3 C 82 % 0 lf 1012,9 hPa 0,0 l/m 0 min 0,0 UV-I 0 W/m 30,9 km/h (5 Bft)
30.01.2013 23:34 8,5 C 7,3 C 82 % 0 lf 1013,1 hPa 0,0 l/m 0 min 0,0 UV-I 0 W/m 30,9 km/h (5 Bft)
30.01.2013 23:36 8,5 C 7,3 C 82 % 0 lf 1013,2 hPa 0,0 l/m 0 min 0,0 UV-I 0 W/m 18,0 km/h (3 Bft)
30.01.2013 23:38 8,5 C 7,3 C 81 % 0 lf 1013,2 hPa 0,0 l/m 0 min 0,0 UV-I 0 W/m 15,4 km/h (3 Bft)
30.01.2013 23:40 8,5 C 7,3 C 81 % 0 lf 1013,3 hPa 0,0 l/m 0 min 0,0 UV-I 0 W/m 20,6 km/h (4 Bft)
30.01.2013 23:42 8,5 C 7,3 C 81 % 0 lf 1013,2 hPa 0,0 l/m 0 min 0,0 UV-I 0 W/m 20,6 km/h (4 Bft)
30.01.2013 23:44 8,5 C 7,3 C 81 % 0 lf 1013,1 hPa 0,0 l/m 0 min 0,0 UV-I 0 W/m 20,6 km/h (4 Bft)
30.01.2013 23:46 8,5 C 6,8 C 81 % 0 lf 1013,3 hPa 0,0 l/m 0 min 0,0 UV-I 0 W/m 28,3 km/h (4 Bft)
30.01.2013 23:48 8,5 C 6,8 C 81 % 0 lf 1013,4 hPa 0,0 l/m 0 min 0,0 UV-I 0 W/m 15,4 km/h (3 Bft)
30.01.2013 23:50 8,5 C 6,8 C 81 % 0 lf 1013,3 hPa 0,0 l/m 0 min 0,0 UV-I 0 W/m 18,0 km/h (3 Bft)
30.01.2013 23:52 8,5 C 7,3 C 81 % 0 lf 1013,4 hPa 0,0 l/m 0 min 0,0 UV-I 0 W/m 20,6 km/h (4 Bft)
30.01.2013 23:54 8,5 C 6,8 C 81 % 0 lf 1013,5 hPa 0,0 l/m 0 min 0,0 UV-I 0 W/m 15,4 km/h (3 Bft)
30.01.2013 23:56 8,5 C 6,8 C 81 % 0 lf 1013,6 hPa 0,0 l/m 0 min 0,0 UV-I 0 W/m 10,3 km/h (2 Bft)
30.01.2013 23:58 8,5 C 6,8 C 81 % 0 lf 1013,7 hPa 0,0 l/m 0 min 0,0 UV-I 0 W/m 15,4 km/h (3 Bft)
_ Min-Zeit 22:02 20:32 18:50 02:04 09:40 - - - - 01:12
Minimum _ 8,3 C 6,8 C 78 % 0 lf 1002,7 hPa - - - - 5,1 km/h (1 Bft)
_ Max-Zeit 08:34 08:22 00:42 00:06 23:58 11:58 14:48 00:00 14:54 08:22
Maximum _ 13,6 C 12,3 C 98 % 15 lf 1013,7 hPa 0,6 l/m 2 min 0,0 UV-I 353 W/m 56,6 km/h
SO (7 Bft)
Durchschnitt _ 11,4 C 9,7 C 89 % 4 lf 1006,7 hPa #4,2 l/m #46 min. 0,0 UV-I 56 W/m 23,2 km/h (4 Bft)
© 2013 W. Hausmann